M I D A S
Marine Information and Data Acquisition System
Tripno 1449 of the Zeeleeuw from 2008-04-01 04:05:47 to 2008-04-01 08:47:36
Back to CruiseResearch ActivitiesStationsMapUnderway DataData graphs

EquipmentUnitsComment
TimeDGPSUTC
LatitudeDGPSDM.mWGS84
LongitudeDGPSDM.mWGS84
TemperatureSBE03/SBE38deg celciusITS90
ConductivitySBE21S/mITS90
SalinitySBE21 Practical Salinity Units
ChlorophylAChelsea fluorimeterg/lCalibrated in Aceton
Missing or incorrect values are displayed as -999
Sea surface data collected by the RV Zeeleeuw from 2008-04-01 03:59:59 to 2008-04-01 08:56:44
                                                                                    Next 1000 lines
Time Latitude Longitude Temperature Conductivity Salinity ChlorophylA
2008-04-01 04:00:09 51°13.643 2°55.998 14.8214 0.15315 0.831414 -1.731873
2008-04-01 04:00:13 51°13.644 2°55.998 14.822 0.15315 0.831414 -1.731873
2008-04-01 04:00:18 51°13.644 2°55.998 14.8217 0.15315 0.831428 -1.731873
2008-04-01 04:00:24 51°13.645 2°55.998 14.8222 0.15315 0.831414 -1.731873
2008-04-01 04:00:28 51°13.645 2°55.998 14.8221 0.15315 0.831428 -1.731873
2008-04-01 04:00:35 51°13.645 2°55.998 14.8223 0.15315 0.831428 -1.731873
2008-04-01 04:00:39 51°13.644 2°55.998 14.8226 0.15315 0.831428 -1.731873
2008-04-01 04:00:44 51°13.644 2°55.998 14.8227 0.15315 0.831428 -1.731873
2008-04-01 04:00:49 51°13.643 2°55.998 14.8232 0.15315 0.831428 -1.731873
2008-04-01 04:00:54 51°13.643 2°55.998 14.8233 0.15315 0.831428 -1.731873
2008-04-01 04:00:59 51°13.643 2°55.998 14.8234 0.153047 0.830857 -1.731873
2008-04-01 04:01:04 51°13.644 2°55.998 14.8238 0.153047 0.830857 -1.731873
2008-04-01 04:01:09 51°13.645 2°55.999 14.8241 0.153047 0.830843 -1.731873
2008-04-01 04:01:14 51°13.645 2°55.999 14.8244 0.153047 0.830857 -1.731873
2008-04-01 04:01:19 51°13.646 2°55.999 14.8243 0.153047 0.830857 -1.731873
2008-04-01 04:01:23 51°13.645 2°55.999 14.8251 0.153047 0.830872 -1.731873
2008-04-01 04:01:28 51°13.645 2°55.999 14.8251 0.153047 0.830872 -1.731873
2008-04-01 04:01:35 51°13.644 2°55.999 14.8254 0.153047 0.830872 -1.731873
2008-04-01 04:01:40 51°13.643 2°55.999 14.8257 0.153047 0.830872 -1.731873
2008-04-01 04:01:43 51°13.643 2°55.999 14.8258 0.153047 0.830872 -1.731873
2008-04-01 04:01:48 51°13.643 2°55.999 14.8264 0.153047 0.830872 -1.766697
2008-04-01 04:01:54 51°13.643 2°55.999 14.8266 0.153047 0.830872 -1.731873
2008-04-01 04:01:59 51°13.643 2°55.999 14.8267 0.153047 0.830886 -1.766697
2008-04-01 04:02:03 51°13.643 2°55.999 14.8271 0.153047 0.830886 -1.766697
2008-04-01 04:02:08 51°13.643 2°55.999 14.8276 0.153047 0.830886 -1.766697
2008-04-01 04:02:14 51°13.644 2°55.999 14.8273 0.153047 0.830886 -1.731873
2008-04-01 04:02:19 51°13.645 2°55.999 14.8279 0.153047 0.830886 -1.731873
2008-04-01 04:02:23 51°13.646 2°55.999 14.828 0.153047 0.830886 -1.731873
2008-04-01 04:02:28 51°13.646 2°55.999 14.8286 0.153047 0.8309 -1.731873
2008-04-01 04:02:33 51°13.645 2°55.999 14.829 0.153047 0.8309 -1.731873
2008-04-01 04:02:39 51°13.644 2°55.998 14.8289 0.153047 0.8309 -1.731873
2008-04-01 04:02:44 51°13.644 2°55.998 14.8293 0.153047 0.8309 -1.731873
2008-04-01 04:02:48 51°13.644 2°55.998 14.8298 0.153047 0.8309 -1.731873
2008-04-01 04:02:54 51°13.643 2°55.998 14.83 0.153047 0.8309 -1.731873
2008-04-01 04:02:59 51°13.643 2°55.998 14.8299 0.153047 0.830914 -1.731873
2008-04-01 04:03:04 51°13.643 2°55.998 14.8304 0.153047 0.830914 -1.731873
2008-04-01 04:03:09 51°13.642 2°55.998 14.8306 0.153047 0.830914 -1.731873
2008-04-01 04:03:13 51°13.642 2°55.998 14.8313 0.153047 0.830914 -1.731873
2008-04-01 04:03:19 51°13.641 2°55.998 14.8315 0.153047 0.830914 -1.731873
2008-04-01 04:03:23 51°13.642 2°55.998 14.832 0.153047 0.830914 -1.731873
2008-04-01 04:03:29 51°13.643 2°55.998 14.8322 0.153047 0.830914 -1.731873
2008-04-01 04:03:34 51°13.643 2°55.998 14.8328 0.153047 0.830929 -1.731873
2008-04-01 04:03:39 51°13.644 2°55.998 14.8331 0.153047 0.830929 -1.731873
2008-04-01 04:03:43 51°13.644 2°55.998 14.8333 0.153047 0.830929 -1.731873
2008-04-01 04:03:48 51°13.644 2°55.998 14.8336 0.153047 0.830929 -1.731873
2008-04-01 04:03:54 51°13.643 2°55.998 14.8339 0.153047 0.830943 -1.731873
2008-04-01 04:03:59 51°13.643 2°55.998 14.8345 0.153047 0.830943 -1.731873
2008-04-01 04:04:03 51°13.643 2°55.998 14.8348 0.153047 0.830943 -1.731873
2008-04-01 04:04:08 51°13.643 2°55.998 14.8351 0.153047 0.830943 -1.731873
2008-04-01 04:04:13 51°13.643 2°55.998 14.8351 0.153047 0.830943 -1.731873
2008-04-01 04:04:19 51°13.644 2°55.998 14.8357 0.153047 0.830943 -1.731873
2008-04-01 04:04:24 51°13.644 2°55.998 14.8361 0.153047 0.830943 -1.731873
2008-04-01 04:04:28 51°13.644 2°55.998 14.8362 0.153047 0.830943 -1.731873
2008-04-01 04:04:34 51°13.644 2°55.998 14.8365 0.153047 0.830943 -1.731873
2008-04-01 04:04:39 51°13.644 2°55.998 14.8372 0.153047 0.830957 -1.731873
2008-04-01 04:04:43 51°13.643 2°55.998 14.8372 0.153047 0.830957 -1.731873
2008-04-01 04:04:48 51°13.643 2°55.998 14.8377 0.153047 0.830971 -1.731873
2008-04-01 04:04:53 51°13.644 2°55.998 14.838 0.153047 0.830971 -1.731873
2008-04-01 04:04:59 51°13.644 2°55.998 14.8382 0.153047 0.830971 -1.731873
2008-04-01 04:05:04 51°13.644 2°55.998 14.8386 0.153047 0.830971 -1.731873
2008-04-01 04:05:08 51°13.644 2°55.998 14.839 0.153047 0.830971 -1.731873
2008-04-01 04:05:14 51°13.644 2°55.998 14.8394 0.153047 0.830971 -1.731873
2008-04-01 04:05:19 51°13.645 2°55.998 14.8399 0.153047 0.830971 -1.731873
2008-04-01 04:05:23 51°13.645 2°55.998 14.8402 0.153047 0.830985 -1.731873
2008-04-01 04:05:28 51°13.645 2°55.998 14.8405 0.153047 0.831 -1.731873
2008-04-01 04:05:34 51°13.645 2°55.998 14.8407 0.153047 0.831 -1.731873
2008-04-01 04:05:39 51°13.644 2°55.998 14.8413 0.153047 0.831 -1.731873
2008-04-01 04:05:43 51°13.644 2°55.998 14.8413 0.153047 0.830985 -1.731873
2008-04-01 04:05:48 51°13.644 2°55.998 14.8419 0.153047 0.830985 -1.731873
2008-04-01 04:05:54 51°13.644 2°55.998 14.8424 0.153047 0.830985 -1.731873
2008-04-01 04:05:59 51°13.645 2°55.998 14.8428 0.153047 0.831 -1.731873
2008-04-01 04:06:03 51°13.645 2°55.998 14.8428 0.153047 0.831 -1.731873
2008-04-01 04:06:09 51°13.644 2°55.998 14.8432 0.153047 0.831 -1.731873
2008-04-01 04:06:14 51°13.644 2°55.998 14.8437 0.153047 0.831 -1.731873
2008-04-01 04:06:19 51°13.644 2°55.998 14.8442 0.153047 0.831 -1.731873
2008-04-01 04:06:24 51°13.644 2°55.998 14.8444 0.153047 0.831014 -1.731873
2008-04-01 04:06:28 51°13.644 2°55.998 14.8448 0.153047 0.831 -1.731873
2008-04-01 04:06:33 51°13.644 2°55.998 14.8452 0.153047 0.831 -1.731873
2008-04-01 04:06:40 51°13.644 2°55.998 14.8455 0.153047 0.831 -1.731873
2008-04-01 04:06:43 51°13.644 2°55.998 14.8457 0.153047 0.831014 -1.731873
2008-04-01 04:06:48 51°13.644 2°55.998 14.8463 0.153047 0.831014 -1.731873
2008-04-01 04:06:54 51°13.644 2°55.998 14.8469 0.153047 0.831028 -1.731873
2008-04-01 04:06:59 51°13.644 2°55.998 14.8466 0.153047 0.831028 -1.731873
2008-04-01 04:07:04 51°13.644 2°55.997 14.8471 0.153047 0.831028 -1.731873
2008-04-01 04:07:08 51°13.644 2°55.996 14.8475 0.153047 0.831028 -1.731873
2008-04-01 04:07:14 51°13.645 2°55.995 14.8478 0.153047 0.831028 -1.731873
2008-04-01 04:07:19 51°13.645 2°55.993 14.8486 0.153047 0.831028 -1.731873
2008-04-01 04:07:24 51°13.646 2°55.99 14.8486 0.153047 0.831028 -1.731873
2008-04-01 04:07:28 51°13.647 2°55.987 14.8492 0.153047 0.831028 -1.731873
2008-04-01 04:07:34 51°13.649 2°55.983 14.8494 0.153047 0.831028 -1.731873
2008-04-01 04:07:39 51°13.65 2°55.978 14.8499 0.153047 0.831042 -1.731873
2008-04-01 04:07:43 51°13.651 2°55.974 14.8502 0.153047 0.831042 -1.766697
2008-04-01 04:07:50 51°13.654 2°55.966 14.8508 0.153047 0.831057 -1.731873
2008-04-01 04:07:55 51°13.655 2°55.96 14.8511 0.153047 0.831057 -1.731873
2008-04-01 04:08:00 51°13.657 2°55.953 14.8513 0.153047 0.831057 -1.731873
2008-04-01 04:08:04 51°13.658 2°55.948 14.8519 0.153047 0.831057 -1.731873
2008-04-01 04:08:09 51°13.66 2°55.941 14.8519 0.153047 0.831057 -1.766697
2008-04-01 04:08:14 51°13.662 2°55.933 14.8522 0.153047 0.831057 -1.731873
2008-04-01 04:08:19 51°13.664 2°55.925 14.8528 0.153047 0.831057 -1.731873
2008-04-01 04:08:24 51°13.666 2°55.917 14.8534 0.153047 0.831071 -1.731873
2008-04-01 04:08:29 51°13.668 2°55.909 14.8537 0.153047 0.831071 -1.731873
2008-04-01 04:08:34 51°13.67 2°55.901 14.8541 0.153047 0.831071 -1.731873
2008-04-01 04:08:39 51°13.671 2°55.892 14.8544 0.153047 0.831071 -1.731873
2008-04-01 04:08:44 51°13.673 2°55.883 14.8547 0.153047 0.831071 -1.731873
2008-04-01 04:08:49 51°13.675 2°55.875 14.8552 0.153047 0.831071 -1.731873
2008-04-01 04:08:54 51°13.677 2°55.866 14.8555 0.153047 0.831085 -1.731873
2008-04-01 04:09:00 51°13.68 2°55.856 14.856 0.153047 0.831085 -1.731873
2008-04-01 04:09:04 51°13.681 2°55.849 14.8561 0.153047 0.831085 -1.731873
2008-04-01 04:09:09 51°13.683 2°55.84 14.8567 0.153047 0.831085 -1.731873
2008-04-01 04:09:14 51°13.685 2°55.832 14.8568 0.153047 0.831085 -1.731873
2008-04-01 04:09:19 51°13.687 2°55.824 14.8572 0.153047 0.831085 -1.731873
2008-04-01 04:09:24 51°13.689 2°55.816 14.8578 0.153047 0.831085 -1.731873
2008-04-01 04:09:29 51°13.691 2°55.808 14.8582 0.153047 0.831085 -1.731873
2008-04-01 04:09:35 51°13.692 2°55.8 14.8587 0.153047 0.831085 -1.731873
2008-04-01 04:09:40 51°13.694 2°55.793 14.859 0.153047 0.831085 -1.731873
2008-04-01 04:09:44 51°13.695 2°55.787 14.8594 0.153047 0.831099 -1.731873
2008-04-01 04:09:49 51°13.696 2°55.78 14.8594 0.153047 0.831099 -1.731873
2008-04-01 04:09:54 51°13.698 2°55.773 14.8596 0.153047 0.831099 -1.731873
2008-04-01 04:09:59 51°13.698 2°55.767 14.8602 0.153047 0.831099 -1.731873
2008-04-01 04:10:03 51°13.699 2°55.762 14.8605 0.153047 0.831099 -1.731873
2008-04-01 04:10:09 51°13.7 2°55.755 14.8608 0.153047 0.831114 -1.766697
2008-04-01 04:10:14 51°13.701 2°55.749 14.8613 0.153047 0.831114 -1.731873
2008-04-01 04:10:19 51°13.701 2°55.743 14.8615 0.153047 0.831099 -1.731873
2008-04-01 04:10:23 51°13.701 2°55.739 14.8618 0.153047 0.831099 -1.731873
2008-04-01 04:10:28 51°13.702 2°55.734 14.8623 0.153047 0.831099 -1.731873
2008-04-01 04:10:34 51°13.703 2°55.728 14.8625 0.153047 0.831114 -1.731873
2008-04-01 04:10:39 51°13.703 2°55.724 14.863 0.153047 0.831114 -1.731873
2008-04-01 04:10:43 51°13.703 2°55.721 14.8633 0.153047 0.831114 -1.731873
2008-04-01 04:10:48 51°13.704 2°55.718 14.8636 0.153047 0.831128 -1.731873
2008-04-01 04:10:54 51°13.704 2°55.714 14.8639 0.153047 0.831114 -1.731873
2008-04-01 04:10:59 51°13.704 2°55.712 14.8643 0.153047 0.831128 -1.731873
2008-04-01 04:11:03 51°13.704 2°55.711 14.8645 0.153047 0.831128 -1.731873
2008-04-01 04:11:10 51°13.705 2°55.709 14.8651 0.153047 0.831128 -1.731873
2008-04-01 04:11:14 51°13.705 2°55.709 14.8654 0.153047 0.831128 -1.731873
2008-04-01 04:11:19 51°13.706 2°55.709 14.8658 0.153047 0.831142 -1.731873
2008-04-01 04:11:24 51°13.706 2°55.709 14.866 0.153047 0.831142 -1.731873
2008-04-01 04:11:28 51°13.707 2°55.709 14.8668 0.153047 0.831142 -1.731873
2008-04-01 04:11:34 51°13.708 2°55.71 14.8664 0.153047 0.831142 -1.731873
2008-04-01 04:11:39 51°13.709 2°55.71 14.8668 0.153047 0.831156 -1.731873
2008-04-01 04:11:44 51°13.711 2°55.711 14.8673 0.153047 0.831156 -1.731873
2008-04-01 04:11:48 51°13.712 2°55.712 14.8678 0.153047 0.831171 -1.731873
2008-04-01 04:11:54 51°13.714 2°55.714 14.8683 0.153047 0.831171 -1.731873
2008-04-01 04:11:59 51°13.715 2°55.715 14.8684 0.153047 0.831171 -1.731873
2008-04-01 04:12:04 51°13.718 2°55.716 14.8686 0.153047 0.831171 -1.731873
2008-04-01 04:12:08 51°13.719 2°55.716 14.869 0.153047 0.831171 -1.731873
2008-04-01 04:12:14 51°13.722 2°55.717 14.8693 0.153047 0.831185 -1.731873
2008-04-01 04:12:19 51°13.725 2°55.718 14.8698 0.153047 0.831185 -1.731873
2008-04-01 04:12:23 51°13.726 2°55.718 14.8703 0.153047 0.831185 -1.731873
2008-04-01 04:12:29 51°13.73 2°55.718 14.8703 0.153047 0.831185 -1.731873
2008-04-01 04:12:34 51°13.733 2°55.717 14.8706 0.153047 0.831171 -1.731873
2008-04-01 04:12:39 51°13.736 2°55.716 14.8709 0.153047 0.831171 -1.731873
2008-04-01 04:12:43 51°13.739 2°55.715 14.8715 0.153047 0.831185 -1.731873
2008-04-01 04:12:50 51°13.744 2°55.712 14.872 0.153047 0.831213 -1.731873
2008-04-01 04:12:54 51°13.747 2°55.71 14.872 0.153047 0.831213 -1.731873
2008-04-01 04:12:59 51°13.75 2°55.708 14.8721 0.153047 0.831213 -1.731873
2008-04-01 04:13:03 51°13.753 2°55.705 14.8725 0.153047 0.831213 -1.731873
2008-04-01 04:13:08 51°13.757 2°55.702 14.873 0.153047 0.831185 -1.731873
2008-04-01 04:13:14 51°13.761 2°55.698 14.8734 0.153047 0.831185 -1.731873
2008-04-01 04:13:19 51°13.764 2°55.695 14.8737 0.153047 0.831185 -1.731873
2008-04-01 04:13:24 51°13.768 2°55.691 14.8742 0.153047 0.831185 -1.731873
2008-04-01 04:13:29 51°13.772 2°55.687 14.8741 0.153047 0.831185 -1.731873
2008-04-01 04:13:34 51°13.776 2°55.683 14.8748 0.153047 0.831185 -1.731873
2008-04-01 04:13:39 51°13.78 2°55.68 14.8748 0.153047 0.831199 -1.731873
2008-04-01 04:13:43 51°13.783 2°55.677 14.8753 0.153047 0.831199 -1.731873
2008-04-01 04:13:49 51°13.788 2°55.672 14.8754 0.152944 0.830628 -1.731873
2008-04-01 04:13:54 51°13.793 2°55.668 14.8755 0.153047 0.831228 -1.731873
2008-04-01 04:13:59 51°13.797 2°55.664 14.8758 0.152944 0.830657 -1.731873
2008-04-01 04:14:04 51°13.802 2°55.661 14.8763 0.152944 0.830657 -1.731873
2008-04-01 04:14:08 51°13.805 2°55.658 14.8763 0.152944 0.830657 -1.731873
2008-04-01 04:14:14 51°13.811 2°55.653 14.8768 0.152944 0.830671 -1.731873
2008-04-01 04:14:19 51°13.816 2°55.649 14.8771 0.152944 0.830685 -1.731873
2008-04-01 04:14:23 51°13.82 2°55.646 14.8774 0.152944 0.830685 -1.731873
2008-04-01 04:14:28 51°13.825 2°55.643 14.8779 0.152944 0.830699 -1.731873
2008-04-01 04:14:34 51°13.831 2°55.639 14.8781 0.152944 0.830699 -1.731873
2008-04-01 04:14:39 51°13.836 2°55.635 14.8784 0.152944 0.830714 -1.731873
2008-04-01 04:14:43 51°13.84 2°55.632 14.8784 0.152944 0.830714 -1.731873
2008-04-01 04:14:49 51°13.847 2°55.627 14.8787 0.152944 0.830728 -1.731873
2008-04-01 04:14:54 51°13.852 2°55.623 14.8795 0.152944 0.830728 -1.731873
2008-04-01 04:14:59 51°13.858 2°55.619 14.8797 0.152944 0.830728 -1.731873
2008-04-01 04:15:03 51°13.863 2°55.616 14.8801 0.152944 0.830728 -1.731873
2008-04-01 04:15:09 51°13.869 2°55.61 14.8805 0.152944 0.830728 -1.731873
2008-04-01 04:15:15 51°13.876 2°55.605 14.8805 0.152944 0.830728 -1.731873
2008-04-01 04:15:19 51°13.881 2°55.601 14.8812 0.152944 0.830728 -1.731873
2008-04-01 04:15:24 51°13.886 2°55.597 14.8812 0.152944 0.830728 -1.731873
2008-04-01 04:15:29 51°13.892 2°55.592 14.882 0.152944 0.830742 -1.731873
2008-04-01 04:15:34 51°13.898 2°55.588 14.882 0.152944 0.830742 -1.731873
2008-04-01 04:15:39 51°13.904 2°55.583 14.8828 0.152944 0.830742 -1.731873
2008-04-01 04:15:44 51°13.91 2°55.579 14.883 0.152944 0.830756 -1.731873
2008-04-01 04:15:49 51°13.916 2°55.574 14.8831 0.152944 0.830756 -1.731873
2008-04-01 04:15:54 51°13.922 2°55.569 14.8832 0.152944 0.83077 -1.731873
2008-04-01 04:15:59 51°13.928 2°55.565 14.8839 0.152944 0.83077 -1.731873
2008-04-01 04:16:04 51°13.934 2°55.56 14.8843 0.152944 0.83077 -1.731873
2008-04-01 04:16:10 51°13.941 2°55.555 14.8845 0.152944 0.83077 -1.731873
2008-04-01 04:16:14 51°13.946 2°55.551 14.8849 0.152944 0.830785 -1.731873
2008-04-01 04:16:19 51°13.952 2°55.546 14.8851 0.152944 0.83077 -1.731873
2008-04-01 04:16:25 51°13.96 2°55.541 14.8858 0.152944 0.830785 -1.731873
2008-04-01 04:16:29 51°13.965 2°55.537 14.8859 0.152944 0.830785 -1.731873
2008-04-01 04:16:34 51°13.971 2°55.533 14.8863 0.152944 0.830785 -1.731873
2008-04-01 04:16:39 51°13.977 2°55.528 14.8867 0.152944 0.830799 -1.731873
2008-04-01 04:16:44 51°13.983 2°55.523 14.8871 0.152944 0.830799 -1.731873
2008-04-01 04:16:49 51°13.99 2°55.519 14.8874 0.152944 0.830813 -1.731873
2008-04-01 04:16:54 51°13.996 2°55.514 14.8875 0.152944 0.830813 -1.731873
2008-04-01 04:16:59 51°14.002 2°55.509 14.8881 0.152944 0.830813 -1.731873
2008-04-01 04:17:03 51°14.007 2°55.505 14.8886 0.152944 0.830813 -1.731873
2008-04-01 04:17:09 51°14.015 2°55.499 14.8891 0.152944 0.830827 -1.731873
2008-04-01 04:17:14 51°14.021 2°55.494 14.8892 0.152944 0.830827 -1.731873
2008-04-01 04:17:19 51°14.027 2°55.489 14.8897 0.152944 0.830827 -1.731873
2008-04-01 04:17:23 51°14.032 2°55.485 14.8899 0.152944 0.830827 -1.731873
2008-04-01 04:17:28 51°14.039 2°55.48 14.8905 0.152944 0.830827 -1.731873
2008-04-01 04:17:34 51°14.047 2°55.473 14.8907 0.152944 0.830842 -1.731873
2008-04-01 04:17:39 51°14.054 2°55.468 14.8911 0.152944 0.830842 -1.731873
2008-04-01 04:17:43 51°14.059 2°55.464 14.8912 0.152944 0.830856 -1.731873
2008-04-01 04:17:49 51°14.067 2°55.457 14.8917 0.152944 0.830856 -1.731873
2008-04-01 04:17:53 51°14.073 2°55.453 14.8923 0.152944 0.830856 -1.731873
2008-04-01 04:17:59 51°14.081 2°55.446 14.8927 0.152944 0.83087 -1.731873
2008-04-01 04:18:03 51°14.087 2°55.441 14.8931 0.152944 0.83087 -1.731873
2008-04-01 04:18:08 51°14.094 2°55.435 14.8932 0.152944 0.83087 -1.731873
2008-04-01 04:18:13 51°14.102 2°55.429 14.8937 0.152944 0.830884 -1.731873
2008-04-01 04:18:19 51°14.111 2°55.42 14.894 0.152944 0.830884 -1.731873
2008-04-01 04:18:24 51°14.12 2°55.413 14.8944 0.152944 0.830884 -1.731873
2008-04-01 04:18:29 51°14.129 2°55.404 14.8945 0.152944 0.830884 -1.731873
2008-04-01 04:18:34 51°14.138 2°55.397 14.8956 0.152944 0.830884 -1.731873
2008-04-01 04:18:39 51°14.147 2°55.388 14.8955 0.152944 0.83087 -1.731873
2008-04-01 04:18:44 51°14.157 2°55.38 14.8961 0.152944 0.830884 -1.731873
2008-04-01 04:18:48 51°14.165 2°55.372 14.8963 0.152944 0.830899 -1.731873
2008-04-01 04:18:54 51°14.177 2°55.361 14.8969 0.152944 0.830899 -1.731873
2008-04-01 04:18:59 51°14.187 2°55.351 14.897 0.152944 0.830913 -1.731873
2008-04-01 04:19:05 51°14.199 2°55.339 14.8979 0.152944 0.830927 -1.731873
2008-04-01 04:19:09 51°14.208 2°55.331 14.8981 0.152944 0.830927 -1.731873
2008-04-01 04:19:14 51°14.218 2°55.32 14.8982 0.152944 0.830927 -1.731873
2008-04-01 04:19:19 51°14.228 2°55.309 14.8988 0.152944 0.830927 -1.731873
2008-04-01 04:19:23 51°14.236 2°55.3 14.8993 0.152944 0.830941 -1.731873
2008-04-01 04:19:29 51°14.248 2°55.286 14.8999 0.152944 0.830956 -1.731873
2008-04-01 04:19:34 51°14.258 2°55.274 14.9003 0.152944 0.830956 -1.731873
2008-04-01 04:19:39 51°14.267 2°55.262 14.9001 0.152944 0.830956 -1.731873
2008-04-01 04:19:43 51°14.275 2°55.253 14.9003 0.152944 0.830941 -1.731873
2008-04-01 04:19:48 51°14.285 2°55.242 14.9012 0.152944 0.830941 -1.731873
2008-04-01 04:19:54 51°14.297 2°55.228 14.9024 0.152944 0.830956 -1.731873
2008-04-01 04:19:59 51°14.305 2°55.214 14.9027 0.152944 0.830998 -1.697049
2008-04-01 04:20:03 51°14.312 2°55.202 14.9024 0.152944 0.830998 -1.697049
2008-04-01 04:20:08 51°14.32 2°55.188 14.903 0.152944 0.830998 -1.766697
2008-04-01 04:20:13 51°14.328 2°55.173 14.9036 0.152944 0.830984 -1.731873
2008-04-01 04:20:19 51°14.337 2°55.155 14.9041 0.152944 0.830984 -1.731873
2008-04-01 04:20:23 51°14.344 2°55.143 14.9043 0.152944 0.830984 -1.731873
2008-04-01 04:20:28 51°14.351 2°55.128 14.9046 0.152944 0.83097 -1.731873
2008-04-01 04:20:33 51°14.359 2°55.112 14.905 0.152944 0.83097 -1.731873
2008-04-01 04:20:39 51°14.368 2°55.093 14.9059 0.152944 0.830984 -1.731873
2008-04-01 04:20:44 51°14.376 2°55.078 14.9058 0.152944 0.830984 -1.766697
2008-04-01 04:20:48 51°14.382 2°55.065 14.9061 0.152944 0.830984 -1.766697
2008-04-01 04:20:54 51°14.39 2°55.046 14.9066 0.152944 0.831027 -1.731873
2008-04-01 04:20:59 51°14.397 2°55.029 14.9074 0.152944 0.831055 -1.731873
2008-04-01 04:21:04 51°14.403 2°55.012 14.9073 0.152944 0.83107 -1.731873
2008-04-01 04:21:08 51°14.408 2°54.998 14.9078 0.152944 0.83107 -1.731873
2008-04-01 04:21:14 51°14.414 2°54.975 14.9082 0.152944 0.83107 -1.731873
2008-04-01 04:21:19 51°14.419 2°54.956 14.9083 0.152944 0.831055 -1.731873
2008-04-01 04:21:23 51°14.423 2°54.941 14.9088 0.152944 0.831041 -1.731873
2008-04-01 04:21:28 51°14.428 2°54.921 14.9092 0.152944 0.831041 -1.731873
2008-04-01 04:21:34 51°14.434 2°54.896 14.9096 0.152944 0.831027 -1.731873
2008-04-01 04:21:39 51°14.439 2°54.875 14.91 0.152944 0.831027 -1.731873
2008-04-01 04:21:43 51°14.444 2°54.858 14.9102 0.152944 0.831027 -1.731873
2008-04-01 04:21:48 51°14.45 2°54.837 14.9109 0.152944 0.831041 -1.731873
2008-04-01 04:21:54 51°14.456 2°54.81 14.9109 0.152944 0.83107 -1.731873
2008-04-01 04:21:59 51°14.461 2°54.787 14.9112 0.152944 0.831084 -1.731873
2008-04-01 04:22:03 51°14.466 2°54.769 14.9117 0.152944 0.831084 -1.731873
2008-04-01 04:22:08 51°14.472 2°54.746 14.9115 0.152944 0.831098 -1.731873
2008-04-01 04:22:14 51°14.479 2°54.718 14.9122 0.152841 0.830498 -1.731873
2008-04-01 04:22:19 51°14.486 2°54.695 14.9126 0.152841 0.830498 -1.731873
2008-04-01 04:22:23 51°14.491 2°54.676 14.9128 0.152841 0.830513 -1.731873
2008-04-01 04:22:28 51°14.498 2°54.653 14.9135 0.152841 0.830527 -1.731873
2008-04-01 04:22:33 51°14.504 2°54.628 14.9137 0.152841 0.830527 -1.731873
2008-04-01 04:22:40 51°14.513 2°54.593 14.9138 0.152841 0.830541 -1.766697
2008-04-01 04:22:43 51°14.516 2°54.578 14.9147 0.152841 0.83057 -1.731873
2008-04-01 04:22:49 51°14.523 2°54.546 14.9144 0.152841 0.830584 -1.731873
2008-04-01 04:22:53 51°14.527 2°54.525 14.9152 0.152841 0.830584 -1.731873
2008-04-01 04:22:59 51°14.533 2°54.494 14.9151 0.152841 0.830598 -1.731873
2008-04-01 04:23:04 51°14.538 2°54.467 14.9162 0.152841 0.830584 -1.731873
2008-04-01 04:23:08 51°14.541 2°54.446 14.9163 0.152841 0.830584 -1.731873
2008-04-01 04:23:14 51°14.547 2°54.414 14.9168 0.152841 0.830584 -1.731873
2008-04-01 04:23:19 51°14.551 2°54.387 14.9169 0.152841 0.830598 -1.731873
2008-04-01 04:23:24 51°14.556 2°54.36 14.9169 0.152841 0.830598 -1.731873
2008-04-01 04:23:28 51°14.56 2°54.339 14.9176 0.152841 0.830598 -1.766697
2008-04-01 04:23:34 51°14.566 2°54.307 14.9177 0.152841 0.830612 -1.731873
2008-04-01 04:23:39 51°14.57 2°54.28 14.9182 0.152841 0.830612 -1.731873
2008-04-01 04:23:43 51°14.574 2°54.258 14.918 0.152841 0.830612 -1.731873
2008-04-01 04:23:49 51°14.581 2°54.226 14.9189 0.152841 0.830627 -1.731873
2008-04-01 04:23:54 51°14.586 2°54.2 14.9193 0.152841 0.830641 -1.731873
2008-04-01 04:23:59 51°14.591 2°54.173 14.9195 0.152841 0.830655 -1.731873
2008-04-01 04:24:03 51°14.595 2°54.152 14.9195 0.152841 0.830655 -1.731873
2008-04-01 04:24:08 51°14.601 2°54.125 14.9199 0.152841 0.830669 -1.766697
2008-04-01 04:24:14 51°14.607 2°54.093 14.9203 0.152841 0.830669 -1.766697
2008-04-01 04:24:19 51°14.613 2°54.066 14.9205 0.152841 0.830669 -1.766697
2008-04-01 04:24:23 51°14.618 2°54.045 14.9211 0.152841 0.830684 -1.731873
2008-04-01 04:24:28 51°14.623 2°54.019 14.9212 0.152841 0.830712 -1.731873
2008-04-01 04:24:34 51°14.629 2°53.987 14.9219 0.152841 0.830726 -1.731873
2008-04-01 04:24:39 51°14.634 2°53.96 14.9222 0.152841 0.830726 -1.731873
2008-04-01 04:24:43 51°14.638 2°53.938 14.9225 0.152841 0.830741 -1.731873
2008-04-01 04:24:48 51°14.642 2°53.911 14.9229 0.152841 0.830741 -1.731873
2008-04-01 04:24:53 51°14.646 2°53.884 14.9232 0.152841 0.830741 -1.766697
2008-04-01 04:24:59 51°14.651 2°53.852 14.9236 0.152841 0.830741 -1.731873
2008-04-01 04:25:04 51°14.655 2°53.825 14.9242 0.152841 0.830741 -1.731873
2008-04-01 04:25:08 51°14.659 2°53.803 14.9243 0.152841 0.830741 -1.731873
2008-04-01 04:25:14 51°14.663 2°53.771 14.9248 0.152841 0.830741 -1.731873
2008-04-01 04:25:19 51°14.667 2°53.744 14.9251 0.152841 0.830755 -1.731873
2008-04-01 04:25:23 51°14.671 2°53.723 14.9254 0.152841 0.830769 -1.731873
2008-04-01 04:25:28 51°14.675 2°53.696 14.9254 0.152841 0.830783 -1.731873
2008-04-01 04:25:34 51°14.68 2°53.664 14.9263 0.152841 0.830783 -1.731873
2008-04-01 04:25:39 51°14.684 2°53.637 14.9267 0.152841 0.830798 -1.731873
2008-04-01 04:25:44 51°14.688 2°53.61 14.9267 0.152841 0.830812 -1.731873
2008-04-01 04:25:48 51°14.691 2°53.589 14.9272 0.152841 0.830826 -1.766697
2008-04-01 04:25:54 51°14.695 2°53.557 14.9273 0.152841 0.830826 -1.731873
2008-04-01 04:25:59 51°14.7 2°53.53 14.9278 0.152841 0.83084 -1.731873
2008-04-01 04:26:03 51°14.703 2°53.509 14.928 0.152841 0.83084 -1.731873
2008-04-01 04:26:09 51°14.709 2°53.477 14.9282 0.152841 0.83084 -1.731873
2008-04-01 04:26:14 51°14.713 2°53.45 14.9288 0.152841 0.83084 -1.731873
2008-04-01 04:26:19 51°14.717 2°53.424 14.9285 0.152841 0.83084 -1.731873
2008-04-01 04:26:23 51°14.72 2°53.403 14.929 0.152841 0.830855 -1.731873
2008-04-01 04:26:29 51°14.725 2°53.371 14.9294 0.152841 0.830869 -1.731873
2008-04-01 04:26:34 51°14.729 2°53.344 14.93 0.152841 0.830883 -1.731873
2008-04-01 04:26:39 51°14.733 2°53.317 14.9304 0.152841 0.830883 -1.731873
2008-04-01 04:26:43 51°14.736 2°53.296 14.9309 0.152841 0.830897 -1.731873
2008-04-01 04:26:48 51°14.74 2°53.269 14.9307 0.152841 0.830897 -1.731873
2008-04-01 04:26:53 51°14.744 2°53.243 14.9314 0.152841 0.830912 -1.731873
2008-04-01 04:26:59 51°14.749 2°53.211 14.9314 0.152841 0.830912 -1.731873
2008-04-01 04:27:04 51°14.754 2°53.184 14.9321 0.152841 0.830926 -1.731873
2008-04-01 04:27:08 51°14.757 2°53.163 14.9325 0.152841 0.830926 -1.731873
2008-04-01 04:27:14 51°14.762 2°53.131 14.933 0.152841 0.83094 -1.766697
2008-04-01 04:27:19 51°14.766 2°53.104 14.9331 0.152841 0.830955 -1.731873
2008-04-01 04:27:23 51°14.769 2°53.083 14.9335 0.152841 0.830955 -1.731873
2008-04-01 04:27:28 51°14.774 2°53.056 14.9339 0.152841 0.830969 -1.731873
2008-04-01 04:27:34 51°14.779 2°53.024 14.9342 0.152841 0.830969 -1.731873
2008-04-01 04:27:39 51°14.783 2°52.998 14.9344 0.152841 0.830983 -1.731873
2008-04-01 04:27:44 51°14.787 2°52.971 14.935 0.152841 0.830983 -1.731873
2008-04-01 04:27:48 51°14.79 2°52.949 14.9354 0.152738 0.830411 -1.731873
2008-04-01 04:27:54 51°14.795 2°52.917 14.9357 0.152738 0.830426 -1.731873
2008-04-01 04:27:59 51°14.8 2°52.89 14.9359 0.152738 0.83044 -1.731873
2008-04-01 04:28:03 51°14.803 2°52.869 14.9363 0.152738 0.83044 -1.731873
2008-04-01 04:28:09 51°14.808 2°52.837 14.9365 0.152738 0.83044 -1.731873
2008-04-01 04:28:14 51°14.812 2°52.81 14.9372 0.152738 0.83044 -1.731873
2008-04-01 04:28:19 51°14.817 2°52.783 14.9376 0.152738 0.830454 -1.731873
2008-04-01 04:28:23 51°14.82 2°52.762 14.9377 0.152738 0.830468 -1.731873
2008-04-01 04:28:29 51°14.825 2°52.729 14.9383 0.152738 0.830483 -1.731873
2008-04-01 04:28:34 51°14.829 2°52.702 14.9387 0.152738 0.830511 -1.697049
2008-04-01 04:28:39 51°14.832 2°52.675 14.939 0.152738 0.830511 -1.697049
2008-04-01 04:28:43 51°14.835 2°52.653 14.9393 0.152738 0.830511 -1.731873
2008-04-01 04:28:48 51°14.838 2°52.626 14.9398 0.152738 0.830526 -1.731873
2008-04-01 04:28:54 51°14.842 2°52.593 14.9402 0.152738 0.830526 -1.731873
2008-04-01 04:28:59 51°14.845 2°52.566 14.9404 0.152738 0.830526 -1.731873
2008-04-01 04:29:03 51°14.848 2°52.545 14.9412 0.152738 0.830526 -1.731873
2008-04-01 04:29:08 51°14.851 2°52.517 14.9409 0.152738 0.83054 -1.731873
2008-04-01 04:29:13 51°14.854 2°52.49 14.9411 0.152738 0.830554 -1.731873
2008-04-01 04:29:19 51°14.859 2°52.457 14.942 0.152738 0.83054 -1.766697
2008-04-01 04:29:23 51°14.862 2°52.436 14.942 0.152738 0.830554 -1.731873
2008-04-01 04:29:28 51°14.866 2°52.409 14.9428 0.152738 0.830568 -1.731873
2008-04-01 04:29:34 51°14.871 2°52.376 14.9427 0.152738 0.830568 -1.731873
2008-04-01 04:29:39 51°14.875 2°52.349 14.9431 0.152738 0.830597 -1.731873
2008-04-01 04:29:43 51°14.878 2°52.327 14.9431 0.152738 0.830611 -1.731873
2008-04-01 04:29:48 51°14.882 2°52.3 14.9437 0.152738 0.830625 -1.766697
2008-04-01 04:29:54 51°14.886 2°52.268 14.9441 0.152738 0.83064 -1.731873
2008-04-01 04:29:59 51°14.89 2°52.241 14.9446 0.152738 0.830654 -1.731873
2008-04-01 04:30:04 51°14.894 2°52.213 14.945 0.152738 0.830654 -1.766697
2008-04-01 04:30:08 51°14.897 2°52.191 14.9452 0.152738 0.830654 -1.766697
2008-04-01 04:30:14 51°14.901 2°52.159 14.946 0.152738 0.830654 -1.731873
2008-04-01 04:30:19 51°14.905 2°52.131 14.946 0.152738 0.830668 -1.731873
2008-04-01 04:30:24 51°14.909 2°52.104 14.9467 0.152738 0.830682 -1.731873
2008-04-01 04:30:29 51°14.913 2°52.077 14.9471 0.152738 0.830697 -1.731873
2008-04-01 04:30:34 51°14.916 2°52.05 14.9475 0.152738 0.830711 -1.731873
2008-04-01 04:30:39 51°14.92 2°52.023 14.9476 0.152738 0.830711 -1.731873
2008-04-01 04:30:43 51°14.923 2°52.001 14.9486 0.152738 0.830725 -1.731873
2008-04-01 04:30:48 51°14.926 2°51.974 14.9487 0.152738 0.830739 -1.731873
2008-04-01 04:30:54 51°14.93 2°51.941 14.9486 0.152738 0.830739 -1.731873
2008-04-01 04:30:59 51°14.934 2°51.914 14.9497 0.152738 0.830768 -1.731873
2008-04-01 04:31:03 51°14.936 2°51.892 14.9499 0.152738 0.830768 -1.731873
2008-04-01 04:31:08 51°14.94 2°51.865 14.9503 0.152738 0.830782 -1.731873
2008-04-01 04:31:14 51°14.944 2°51.832 14.9506 0.152738 0.830782 -1.731873
2008-04-01 04:31:19 51°14.948 2°51.805 14.9509 0.152738 0.830782 -1.731873
2008-04-01 04:31:23 51°14.951 2°51.783 14.9512 0.152738 0.830811 -1.731873
2008-04-01 04:31:28 51°14.954 2°51.756 14.9516 0.152738 0.830811 -1.731873
2008-04-01 04:31:34 51°14.959 2°51.723 14.9522 0.152738 0.830839 -1.731873
2008-04-01 04:31:39 51°14.962 2°51.696 14.9526 0.152738 0.830839 -1.731873
2008-04-01 04:31:43 51°14.965 2°51.675 14.9525 0.152738 0.830868 -1.731873
2008-04-01 04:31:48 51°14.968 2°51.647 14.9535 0.152738 0.830882 -1.731873
2008-04-01 04:31:54 51°14.971 2°51.614 14.9538 0.152738 0.830896 -1.731873
2008-04-01 04:31:59 51°14.974 2°51.587 14.9542 0.152738 0.830882 -1.731873
2008-04-01 04:32:04 51°14.977 2°51.56 14.9548 0.152635 0.83031 -1.731873
2008-04-01 04:32:08 51°14.979 2°51.537 14.9553 0.152635 0.83031 -1.731873
2008-04-01 04:32:14 51°14.982 2°51.505 14.9554 0.152635 0.83031 -1.731873
2008-04-01 04:32:19 51°14.985 2°51.477 14.9563 0.152635 0.83031 -1.731873
2008-04-01 04:32:24 51°14.988 2°51.45 14.9565 0.152635 0.830325 -1.731873
2008-04-01 04:32:29 51°14.991 2°51.422 14.9569 0.152635 0.830353 -1.731873
2008-04-01 04:32:34 51°14.994 2°51.395 14.9572 0.152635 0.830353 -1.731873
2008-04-01 04:32:39 51°14.997 2°51.368 14.9576 0.152635 0.830353 -1.731873
2008-04-01 04:32:43 51°15 2°51.346 14.9575 0.152635 0.830367 -1.731873
2008-04-01 04:32:49 51°15.005 2°51.314 14.9587 0.152635 0.830367 -1.731873
2008-04-01 04:32:54 51°15.008 2°51.286 14.9587 0.152635 0.830396 -1.731873
2008-04-01 04:32:59 51°15.013 2°51.26 14.959 0.152635 0.83041 -1.731873
2008-04-01 04:33:04 51°15.018 2°51.233 14.9594 0.152635 0.83041 -1.731873
2008-04-01 04:33:08 51°15.022 2°51.211 14.9597 0.152635 0.83041 -1.731873
2008-04-01 04:33:14 51°15.028 2°51.179 14.9603 0.152635 0.830424 -1.731873
2008-04-01 04:33:19 51°15.033 2°51.153 14.9605 0.152635 0.830453 -1.766697
2008-04-01 04:33:24 51°15.038 2°51.126 14.9613 0.152635 0.830453 -1.731873
2008-04-01 04:33:29 51°15.043 2°51.099 14.9614 0.152635 0.830467 -1.731873
2008-04-01 04:33:34 51°15.049 2°51.073 14.9622 0.152635 0.830481 -1.731873
2008-04-01 04:33:39 51°15.054 2°51.046 14.9625 0.152635 0.830481 -1.731873
2008-04-01 04:33:44 51°15.059 2°51.019 14.9635 0.152635 0.83051 -1.731873
2008-04-01 04:33:49 51°15.063 2°50.993 14.9636 0.152635 0.830524 -1.697049
2008-04-01 04:33:54 51°15.068 2°50.966 14.9641 0.152635 0.830524 -1.731873
2008-04-01 04:33:59 51°15.072 2°50.939 14.9644 0.152635 0.830539 -1.731873
2008-04-01 04:34:04 51°15.077 2°50.912 14.9648 0.152635 0.830539 -1.731873
2008-04-01 04:34:09 51°15.081 2°50.885 14.9655 0.152635 0.830539 -1.731873
2008-04-01 04:34:14 51°15.086 2°50.858 14.9658 0.152635 0.830553 -1.731873
2008-04-01 04:34:19 51°15.09 2°50.831 14.9666 0.152635 0.830553 -1.731873
2008-04-01 04:34:24 51°15.095 2°50.804 14.9667 0.152635 0.830567 -1.731873
2008-04-01 04:34:29 51°15.099 2°50.777 14.9674 0.152635 0.830567 -1.766697
2008-04-01 04:34:34 51°15.104 2°50.751 14.9677 0.152635 0.830567 -1.766697
2008-04-01 04:34:39 51°15.109 2°50.724 14.9676 0.152635 0.830596 -1.731873
2008-04-01 04:34:44 51°15.114 2°50.697 14.9684 0.152635 0.830596 -1.731873
2008-04-01 04:34:49 51°15.119 2°50.67 14.9688 0.152635 0.83061 -1.731873
2008-04-01 04:34:54 51°15.124 2°50.644 14.9691 0.152635 0.830624 -1.731873
2008-04-01 04:34:59 51°15.129 2°50.617 14.9697 0.152635 0.830638 -1.731873
2008-04-01 04:35:04 51°15.135 2°50.591 14.9702 0.152635 0.830653 -1.731873
2008-04-01 04:35:09 51°15.14 2°50.564 14.9704 0.152635 0.830653 -1.731873
2008-04-01 04:35:14 51°15.145 2°50.537 14.9709 0.152635 0.830681 -1.731873
2008-04-01 04:35:19 51°15.149 2°50.51 14.9711 0.152635 0.830696 -1.731873
2008-04-01 04:35:24 51°15.154 2°50.483 14.9716 0.152635 0.83071 -1.731873
2008-04-01 04:35:29 51°15.158 2°50.456 14.972 0.152635 0.83071 -1.731873
2008-04-01 04:35:34 51°15.162 2°50.429 14.9726 0.152635 0.83071 -1.731873
2008-04-01 04:35:39 51°15.167 2°50.401 14.9731 0.152635 0.83071 -1.731873
2008-04-01 04:35:44 51°15.171 2°50.374 14.9736 0.152635 0.83071 -1.766697
2008-04-01 04:35:49 51°15.175 2°50.347 14.974 0.152635 0.830724 -1.731873
2008-04-01 04:35:54 51°15.18 2°50.32 14.9742 0.152635 0.830738 -1.731873
2008-04-01 04:35:59 51°15.184 2°50.294 14.9746 0.152635 0.830738 -1.766697
2008-04-01 04:36:04 51°15.189 2°50.267 14.9752 0.152532 0.83018 -1.731873
2008-04-01 04:36:09 51°15.193 2°50.24 14.9755 0.152532 0.83018 -1.731873
2008-04-01 04:36:14 51°15.198 2°50.213 14.976 0.152532 0.830195 -1.731873
2008-04-01 04:36:19 51°15.202 2°50.186 14.9762 0.152532 0.830209 -1.731873
2008-04-01 04:36:24 51°15.206 2°50.159 14.9768 0.152532 0.830223 -1.731873
2008-04-01 04:36:29 51°15.211 2°50.132 14.977 0.152532 0.830223 -1.731873
2008-04-01 04:36:34 51°15.216 2°50.105 14.9776 0.152532 0.830223 -1.731873
2008-04-01 04:36:39 51°15.22 2°50.078 14.9781 0.152532 0.830223 -1.766697
2008-04-01 04:36:44 51°15.225 2°50.052 14.9787 0.152532 0.830252 -1.697049
2008-04-01 04:36:49 51°15.229 2°50.025 14.9788 0.152532 0.830266 -1.731873
2008-04-01 04:36:54 51°15.234 2°49.998 14.9794 0.152532 0.83028 -1.731873
2008-04-01 04:36:59 51°15.238 2°49.971 14.9796 0.152532 0.830295 -1.731873
2008-04-01 04:37:04 51°15.243 2°49.944 14.9802 0.152532 0.830309 -1.731873
2008-04-01 04:37:09 51°15.247 2°49.918 14.9808 0.152532 0.830309 -1.731873
2008-04-01 04:37:14 51°15.252 2°49.891 14.981 0.152532 0.830323 -1.731873
2008-04-01 04:37:19 51°15.256 2°49.864 14.9813 0.152532 0.830323 -1.731873
2008-04-01 04:37:24 51°15.261 2°49.837 14.9817 0.152532 0.830323 -1.731873
2008-04-01 04:37:29 51°15.265 2°49.811 14.9823 0.152532 0.830352 -1.731873
2008-04-01 04:37:34 51°15.27 2°49.784 14.9826 0.152532 0.830352 -1.731873
2008-04-01 04:37:39 51°15.274 2°49.757 14.983 0.152532 0.830352 -1.731873
2008-04-01 04:37:44 51°15.279 2°49.731 14.9836 0.152532 0.830366 -1.766697
2008-04-01 04:37:49 51°15.283 2°49.704 14.9838 0.152532 0.830366 -1.731873
2008-04-01 04:37:54 51°15.288 2°49.677 14.9845 0.152532 0.83038 -1.731873
2008-04-01 04:37:59 51°15.293 2°49.65 14.985 0.152532 0.830409 -1.766697
2008-04-01 04:38:04 51°15.297 2°49.624 14.9854 0.152532 0.830423 -1.731873
2008-04-01 04:38:09 51°15.302 2°49.597 14.9855 0.152532 0.830423 -1.731873
2008-04-01 04:38:14 51°15.307 2°49.57 14.9859 0.152532 0.830423 -1.731873
2008-04-01 04:38:19 51°15.311 2°49.544 14.9864 0.152532 0.830452 -1.766697
2008-04-01 04:38:24 51°15.316 2°49.517 14.9871 0.152532 0.830452 -1.731873
2008-04-01 04:38:29 51°15.321 2°49.49 14.9869 0.152532 0.830466 -1.731873
2008-04-01 04:38:34 51°15.326 2°49.464 14.988 0.152532 0.830466 -1.731873
2008-04-01 04:38:39 51°15.33 2°49.437 14.9883 0.152532 0.83048 -1.731873
2008-04-01 04:38:44 51°15.335 2°49.41 14.9884 0.152532 0.830495 -1.731873
2008-04-01 04:38:49 51°15.34 2°49.384 14.9892 0.152532 0.830509 -1.731873
2008-04-01 04:38:54 51°15.344 2°49.357 14.9893 0.152532 0.830523 -1.731873
2008-04-01 04:38:59 51°15.349 2°49.33 14.9897 0.152532 0.830537 -1.731873
2008-04-01 04:39:04 51°15.354 2°49.304 14.9901 0.152532 0.830537 -1.731873
2008-04-01 04:39:09 51°15.358 2°49.277 14.9909 0.152532 0.830537 -1.731873
2008-04-01 04:39:14 51°15.363 2°49.251 14.9911 0.152532 0.830552 -1.731873
2008-04-01 04:39:19 51°15.368 2°49.224 14.9915 0.152532 0.830566 -1.731873
2008-04-01 04:39:24 51°15.373 2°49.197 14.9919 0.152532 0.83058 -1.731873
2008-04-01 04:39:29 51°15.378 2°49.171 14.9923 0.152532 0.830595 -1.731873
2008-04-01 04:39:34 51°15.382 2°49.144 14.9929 0.152532 0.830609 -1.731873
2008-04-01 04:39:39 51°15.387 2°49.117 14.9932 0.152532 0.830609 -1.731873
2008-04-01 04:39:44 51°15.392 2°49.091 14.9937 0.152532 0.830623 -1.731873
2008-04-01 04:39:49 51°15.396 2°49.064 14.9942 0.152429 0.830051 -1.731873
2008-04-01 04:39:54 51°15.401 2°49.038 14.9945 0.152429 0.830051 -1.731873
2008-04-01 04:39:59 51°15.406 2°49.011 14.995 0.152429 0.830065 -1.731873
2008-04-01 04:40:04 51°15.411 2°48.984 14.9954 0.152429 0.830065 -1.731873
2008-04-01 04:40:09 51°15.416 2°48.958 14.9964 0.152429 0.830093 -1.731873
2008-04-01 04:40:14 51°15.42 2°48.931 14.9964 0.152429 0.830108 -1.731873
2008-04-01 04:40:19 51°15.425 2°48.905 14.9968 0.152429 0.830122 -1.731873
2008-04-01 04:40:24 51°15.43 2°48.878 14.9971 0.152429 0.830122 -1.731873
2008-04-01 04:40:29 51°15.434 2°48.851 14.9975 0.152429 0.830136 -1.731873
2008-04-01 04:40:34 51°15.439 2°48.825 14.9979 0.152429 0.830151 -1.731873
2008-04-01 04:40:39 51°15.444 2°48.798 14.9988 0.152429 0.830151 -1.731873
2008-04-01 04:40:44 51°15.448 2°48.772 14.9991 0.152429 0.830165 -1.731873
2008-04-01 04:40:49 51°15.453 2°48.746 14.9995 0.152429 0.830179 -1.731873
2008-04-01 04:40:54 51°15.457 2°48.719 14.9997 0.152429 0.830193 -1.731873
2008-04-01 04:40:59 51°15.462 2°48.693 15.0001 0.152429 0.830208 -1.731873
2008-04-01 04:41:04 51°15.467 2°48.667 15.0007 0.152429 0.830222 -1.731873
2008-04-01 04:41:09 51°15.471 2°48.64 15.0009 0.152429 0.830222 -1.731873
2008-04-01 04:41:14 51°15.476 2°48.614 15.0013 0.152429 0.830236 -1.731873
2008-04-01 04:41:19 51°15.48 2°48.588 15.0019 0.152429 0.830251 -1.731873
2008-04-01 04:41:24 51°15.485 2°48.561 15.0022 0.152429 0.830251 -1.731873
2008-04-01 04:41:29 51°15.49 2°48.535 15.0028 0.152429 0.830265 -1.731873
2008-04-01 04:41:34 51°15.494 2°48.509 15.0032 0.152429 0.830279 -1.731873
2008-04-01 04:41:39 51°15.498 2°48.482 15.0036 0.152429 0.830279 -1.731873
2008-04-01 04:41:44 51°15.503 2°48.456 15.0042 0.152429 0.830293 -1.731873
2008-04-01 04:41:49 51°15.508 2°48.43 15.0047 0.152429 0.830308 -1.731873
2008-04-01 04:41:54 51°15.512 2°48.404 15.0051 0.152429 0.830322 -1.731873
2008-04-01 04:41:59 51°15.516 2°48.377 15.0053 0.152429 0.830336 -1.731873
2008-04-01 04:42:04 51°15.521 2°48.351 15.006 0.152429 0.830336 -1.731873
2008-04-01 04:42:09 51°15.526 2°48.325 15.006 0.152429 0.830351 -1.731873
2008-04-01 04:42:14 51°15.53 2°48.299 15.0071 0.152429 0.830365 -1.731873
2008-04-01 04:42:19 51°15.535 2°48.272 15.0076 0.152429 0.830379 -1.731873
2008-04-01 04:42:24 51°15.539 2°48.246 15.0079 0.152429 0.830393 -1.731873
2008-04-01 04:42:29 51°15.544 2°48.219 15.0085 0.15243 0.830408 -1.731873
2008-04-01 04:42:34 51°15.548 2°48.193 15.0091 0.15243 0.830422 -1.731873
2008-04-01 04:42:39 51°15.553 2°48.166 15.009 0.15243 0.830422 -1.731873
2008-04-01 04:42:44 51°15.557 2°48.14 15.0097 0.15243 0.830422 -1.731873
2008-04-01 04:42:49 51°15.562 2°48.114 15.0103 0.15243 0.830451 -1.731873
2008-04-01 04:42:54 51°15.567 2°48.087 15.0106 0.15243 0.830465 -1.766697
2008-04-01 04:42:59 51°15.571 2°48.061 15.0114 0.15243 0.830479 -1.731873
2008-04-01 04:43:04 51°15.576 2°48.035 15.0117 0.15243 0.830494 -1.766697
2008-04-01 04:43:09 51°15.581 2°48.008 15.0123 0.15243 0.830494 -1.766697
2008-04-01 04:43:14 51°15.585 2°47.982 15.0126 0.15243 0.830508 -1.731873
2008-04-01 04:43:19 51°15.59 2°47.955 15.0132 0.152327 0.829935 -1.731873
2008-04-01 04:43:24 51°15.595 2°47.929 15.0141 0.152327 0.829935 -1.731873
2008-04-01 04:43:29 51°15.599 2°47.903 15.0143 0.152327 0.829964 -1.731873
2008-04-01 04:43:34 51°15.604 2°47.876 15.0149 0.152327 0.829964 -1.731873
2008-04-01 04:43:39 51°15.609 2°47.849 15.0154 0.152327 0.829978 -1.731873
2008-04-01 04:43:44 51°15.613 2°47.823 15.0159 0.152327 0.829992 -1.731873
2008-04-01 04:43:49 51°15.618 2°47.796 15.0165 0.152327 0.830006 -1.731873
2008-04-01 04:43:54 51°15.623 2°47.77 15.0167 0.152327 0.830021 -1.731873
2008-04-01 04:43:59 51°15.628 2°47.743 15.0172 0.152327 0.830006 -1.731873
2008-04-01 04:44:04 51°15.633 2°47.717 15.0181 0.152327 0.830049 -1.697049
2008-04-01 04:44:09 51°15.639 2°47.691 15.0181 0.152327 0.830049 -1.697049
2008-04-01 04:44:14 51°15.645 2°47.665 15.0187 0.152327 0.830035 -1.731873
2008-04-01 04:44:19 51°15.651 2°47.639 15.0193 0.152327 0.830064 -1.731873
2008-04-01 04:44:24 51°15.658 2°47.613 15.0198 0.152327 0.830092 -1.731873
2008-04-01 04:44:29 51°15.665 2°47.588 15.0204 0.152327 0.830107 -1.731873
2008-04-01 04:44:34 51°15.671 2°47.562 15.0208 0.152327 0.830121 -1.731873
2008-04-01 04:44:39 51°15.678 2°47.536 15.0214 0.152327 0.830121 -1.731873
2008-04-01 04:44:44 51°15.684 2°47.51 15.0221 0.152327 0.830135 -1.731873
2008-04-01 04:44:49 51°15.691 2°47.484 15.0229 0.152327 0.830149 -1.766697
2008-04-01 04:44:54 51°15.697 2°47.458 15.0235 0.152327 0.830178 -1.731873
2008-04-01 04:44:59 51°15.704 2°47.432 15.0244 0.152327 0.830178 -1.731873
2008-04-01 04:45:04 51°15.71 2°47.406 15.0246 0.152327 0.830178 -1.731873
2008-04-01 04:45:09 51°15.716 2°47.38 15.0256 0.152327 0.830192 -1.731873
2008-04-01 04:45:14 51°15.722 2°47.354 15.0259 0.152327 0.830207 -1.731873
2008-04-01 04:45:19 51°15.728 2°47.327 15.0265 0.152327 0.830235 -1.731873
2008-04-01 04:45:24 51°15.734 2°47.301 15.0273 0.152327 0.830235 -1.731873
2008-04-01 04:45:29 51°15.74 2°47.275 15.028 0.152327 0.830249 -1.731873
2008-04-01 04:45:34 51°15.746 2°47.249 15.0284 0.152327 0.830249 -1.731873
2008-04-01 04:45:39 51°15.752 2°47.223 15.0289 0.152327 0.830264 -1.731873
2008-04-01 04:45:44 51°15.758 2°47.196 15.0296 0.152327 0.830264 -1.766697
2008-04-01 04:45:49 51°15.764 2°47.17 15.0297 0.152327 0.830292 -1.731873
2008-04-01 04:45:54 51°15.77 2°47.144 15.0305 0.152327 0.830292 -1.731873
2008-04-01 04:45:59 51°15.777 2°47.118 15.0312 0.152327 0.830307 -1.731873
2008-04-01 04:46:04 51°15.783 2°47.092 15.0314 0.152327 0.830335 -1.731873
2008-04-01 04:46:09 51°15.79 2°47.066 15.0322 0.152327 0.830335 -1.731873
2008-04-01 04:46:14 51°15.797 2°47.04 15.0327 0.152327 0.830335 -1.731873
2008-04-01 04:46:19 51°15.803 2°47.014 15.0336 0.152327 0.830364 -1.731873
2008-04-01 04:46:24 51°15.809 2°46.988 15.0338 0.152327 0.830407 -1.697049
2008-04-01 04:46:29 51°15.815 2°46.962 15.0342 0.152327 0.830407 -1.731873
2008-04-01 04:46:34 51°15.822 2°46.936 15.0349 0.152224 0.829848 -1.731873
2008-04-01 04:46:39 51°15.828 2°46.91 15.0353 0.152224 0.829848 -1.731873
2008-04-01 04:46:44 51°15.834 2°46.883 15.0361 0.152224 0.829848 -1.731873
2008-04-01 04:46:49 51°15.84 2°46.857 15.0365 0.152224 0.829862 -1.731873
2008-04-01 04:46:54 51°15.846 2°46.831 15.0371 0.152224 0.829862 -1.731873
2008-04-01 04:46:59 51°15.852 2°46.805 15.0377 0.152224 0.829877 -1.731873
2008-04-01 04:47:04 51°15.858 2°46.779 15.0385 0.152224 0.829877 -1.731873
2008-04-01 04:47:09 51°15.864 2°46.752 15.0388 0.152224 0.829905 -1.731873
2008-04-01 04:47:14 51°15.87 2°46.727 15.0396 0.152224 0.829905 -1.731873
2008-04-01 04:47:19 51°15.876 2°46.701 15.0397 0.152224 0.82992 -1.731873
2008-04-01 04:47:24 51°15.883 2°46.675 15.0406 0.152224 0.829934 -1.731873
2008-04-01 04:47:29 51°15.889 2°46.649 15.0405 0.152224 0.829948 -1.731873
2008-04-01 04:47:34 51°15.896 2°46.624 15.0413 0.152224 0.829948 -1.731873
2008-04-01 04:47:39 51°15.903 2°46.599 15.0418 0.152224 0.829948 -1.731873
2008-04-01 04:47:44 51°15.911 2°46.574 15.0423 0.152224 0.829977 -1.766697
2008-04-01 04:47:49 51°15.918 2°46.549 15.043 0.152224 0.829991 -1.731873
2008-04-01 04:47:54 51°15.925 2°46.524 15.0434 0.152224 0.83002 -1.731873
2008-04-01 04:47:59 51°15.933 2°46.499 15.0439 0.152224 0.830048 -1.731873
2008-04-01 04:48:04 51°15.94 2°46.473 15.0444 0.152224 0.830063 -1.731873
2008-04-01 04:48:09 51°15.947 2°46.448 15.0452 0.152224 0.830063 -1.731873
2008-04-01 04:48:14 51°15.954 2°46.423 15.0459 0.152224 0.830091 -1.731873
2008-04-01 04:48:19 51°15.96 2°46.398 15.0462 0.152224 0.830105 -1.731873
2008-04-01 04:48:24 51°15.967 2°46.373 15.0468 0.152224 0.830105 -1.731873
2008-04-01 04:48:29 51°15.974 2°46.347 15.0476 0.152224 0.83012 -1.731873
2008-04-01 04:48:34 51°15.981 2°46.322 15.0482 0.152224 0.830134 -1.731873
2008-04-01 04:48:39 51°15.987 2°46.297 15.0486 0.152224 0.830134 -1.731873
2008-04-01 04:48:44 51°15.994 2°46.272 15.0494 0.152224 0.830148 -1.731873
2008-04-01 04:48:49 51°16.001 2°46.247 15.05 0.152224 0.830148 -1.731873
2008-04-01 04:48:54 51°16.008 2°46.221 15.0509 0.152224 0.830177 -1.731873
2008-04-01 04:48:59 51°16.014 2°46.196 15.0512 0.152224 0.830191 -1.731873
2008-04-01 04:49:04 51°16.021 2°46.171 15.0514 0.152224 0.830191 -1.731873
2008-04-01 04:49:09 51°16.028 2°46.146 15.0523 0.152224 0.830206 -1.731873
2008-04-01 04:49:14 51°16.034 2°46.121 15.0528 0.152224 0.83022 -1.731873
2008-04-01 04:49:19 51°16.041 2°46.096 15.0534 0.152224 0.830249 -1.731873
2008-04-01 04:49:24 51°16.047 2°46.071 15.0539 0.152224 0.830263 -1.731873
2008-04-01 04:49:29 51°16.054 2°46.046 15.0547 0.152224 0.830277 -1.731873
2008-04-01 04:49:34 51°16.061 2°46.021 15.0551 0.152224 0.830291 -1.731873
2008-04-01 04:49:39 51°16.067 2°45.996 15.0556 0.152224 0.830291 -1.731873
2008-04-01 04:49:44 51°16.074 2°45.971 15.0562 0.152121 0.829718 -1.731873
2008-04-01 04:49:49 51°16.081 2°45.946 15.0568 0.152121 0.829732 -1.731873
2008-04-01 04:49:54 51°16.087 2°45.921 15.0574 0.152121 0.829761 -1.731873
2008-04-01 04:49:59 51°16.094 2°45.896 15.058 0.152121 0.829775 -1.731873
2008-04-01 04:50:04 51°16.101 2°45.871 15.0586 0.152121 0.82979 -1.731873
2008-04-01 04:50:09 51°16.107 2°45.846 15.0587 0.152121 0.82979 -1.731873
2008-04-01 04:50:14 51°16.113 2°45.821 15.0597 0.152121 0.829804 -1.766697
2008-04-01 04:50:19 51°16.12 2°45.796 15.0602 0.152121 0.829818 -1.731873
2008-04-01 04:50:24 51°16.127 2°45.771 15.0601 0.152121 0.829833 -1.731873
2008-04-01 04:50:29 51°16.134 2°45.747 15.0615 0.152121 0.829833 -1.731873
2008-04-01 04:50:34 51°16.142 2°45.723 15.0614 0.152121 0.829847 -1.731873
2008-04-01 04:50:39 51°16.149 2°45.699 15.0626 0.152121 0.829847 -1.731873
2008-04-01 04:50:44 51°16.157 2°45.675 15.063 0.152121 0.829875 -1.731873
2008-04-01 04:50:49 51°16.165 2°45.651 15.0637 0.152121 0.82989 -1.731873
2008-04-01 04:50:54 51°16.173 2°45.627 15.0643 0.152121 0.829918 -1.731873
2008-04-01 04:50:59 51°16.181 2°45.603 15.0648 0.152121 0.829933 -1.731873
2008-04-01 04:51:04 51°16.189 2°45.58 15.0656 0.152121 0.829947 -1.731873
2008-04-01 04:51:09 51°16.197 2°45.557 15.0659 0.152121 0.829947 -1.731873
2008-04-01 04:51:14 51°16.206 2°45.534 15.0663 0.152121 0.829961 -1.731873
2008-04-01 04:51:19 51°16.215 2°45.511 15.0673 0.152121 0.829961 -1.731873
2008-04-01 04:51:24 51°16.224 2°45.488 15.0676 0.152121 0.82999 -1.731873
2008-04-01 04:51:29 51°16.233 2°45.465 15.0688 0.152121 0.830019 -1.731873
2008-04-01 04:51:34 51°16.242 2°45.443 15.0693 0.152121 0.830033 -1.731873
2008-04-01 04:51:39 51°16.251 2°45.42 15.0701 0.152121 0.830033 -1.731873
2008-04-01 04:51:44 51°16.26 2°45.397 15.0701 0.152121 0.830062 -1.731873
2008-04-01 04:51:49 51°16.268 2°45.374 15.0711 0.152121 0.83009 -1.731873
2008-04-01 04:51:54 51°16.277 2°45.351 15.0716 0.152121 0.830104 -1.731873
2008-04-01 04:51:59 51°16.285 2°45.327 15.0721 0.152121 0.830104 -1.731873
2008-04-01 04:52:04 51°16.293 2°45.304 15.0726 0.152121 0.830119 -1.731873
2008-04-01 04:52:09 51°16.302 2°45.28 15.0739 0.152121 0.830119 -1.731873
2008-04-01 04:52:14 51°16.31 2°45.257 15.0742 0.152121 0.830119 -1.731873
2008-04-01 04:52:19 51°16.319 2°45.234 15.075 0.152121 0.830147 -1.731873
2008-04-01 04:52:24 51°16.327 2°45.21 15.0755 0.152121 0.830162 -1.731873
2008-04-01 04:52:29 51°16.337 2°45.188 15.0764 0.152121 0.830162 -1.731873
2008-04-01 04:52:34 51°16.346 2°45.165 15.0768 0.152018 0.829602 -1.731873
2008-04-01 04:52:39 51°16.355 2°45.143 15.0773 0.152018 0.829602 -1.731873
2008-04-01 04:52:44 51°16.364 2°45.12 15.0779 0.152018 0.829617 -1.731873
2008-04-01 04:52:49 51°16.374 2°45.098 15.0782 0.152018 0.829645 -1.731873
2008-04-01 04:52:54 51°16.383 2°45.076 15.0791 0.152018 0.829674 -1.731873
2008-04-01 04:52:59 51°16.393 2°45.053 15.0797 0.152018 0.829674 -1.731873
2008-04-01 04:53:04 51°16.403 2°45.031 15.0803 0.152018 0.829703 -1.731873
2008-04-01 04:53:09 51°16.413 2°45.009 15.0808 0.152018 0.829703 -1.731873
2008-04-01 04:53:14 51°16.422 2°44.988 15.0815 0.152018 0.829717 -1.731873
2008-04-01 04:53:19 51°16.432 2°44.966 15.0823 0.152018 0.829731 -1.731873
2008-04-01 04:53:24 51°16.443 2°44.944 15.0826 0.152018 0.82976 -1.731873
2008-04-01 04:53:29 51°16.452 2°44.922 15.084 0.152018 0.829774 -1.731873
2008-04-01 04:53:34 51°16.462 2°44.899 15.0842 0.152018 0.829789 -1.731873
2008-04-01 04:53:39 51°16.471 2°44.877 15.0853 0.152018 0.829789 -1.731873
2008-04-01 04:53:44 51°16.481 2°44.855 15.0854 0.152018 0.829817 -1.697049
2008-04-01 04:53:49 51°16.49 2°44.832 15.0863 0.152018 0.829817 -1.731873
2008-04-01 04:53:54 51°16.5 2°44.81 15.0873 0.152018 0.829846 -1.731873
2008-04-01 04:53:59 51°16.509 2°44.787 15.088 0.152018 0.829874 -1.731873
2008-04-01 04:54:04 51°16.518 2°44.764 15.0887 0.152018 0.829889 -1.731873
2008-04-01 04:54:09 51°16.527 2°44.742 15.0892 0.152018 0.829889 -1.731873
2008-04-01 04:54:14 51°16.536 2°44.719 15.0899 0.152018 0.829889 -1.731873
2008-04-01 04:54:19 51°16.546 2°44.696 15.0906 0.152018 0.829903 -1.731873
2008-04-01 04:54:24 51°16.555 2°44.673 15.0912 0.152018 0.829917 -1.731873
2008-04-01 04:54:29 51°16.564 2°44.651 15.0923 0.152018 0.829932 -1.731873
2008-04-01 04:54:34 51°16.573 2°44.628 15.093 0.152018 0.829932 -1.731873
2008-04-01 04:54:39 51°16.582 2°44.605 15.093 0.152018 0.82996 -1.731873
2008-04-01 04:54:44 51°16.592 2°44.582 15.0943 0.152018 0.829975 -1.731873
2008-04-01 04:54:49 51°16.601 2°44.559 15.0949 0.152018 0.830003 -1.731873
2008-04-01 04:54:54 51°16.61 2°44.537 15.0955 0.152018 0.830018 -1.731873
2008-04-01 04:54:59 51°16.62 2°44.514 15.0965 0.152018 0.830032 -1.731873
2008-04-01 04:55:04 51°16.629 2°44.491 15.0973 0.152018 0.830061 -1.731873
2008-04-01 04:55:09 51°16.638 2°44.468 15.0978 0.152018 0.830061 -1.731873
2008-04-01 04:55:14 51°16.647 2°44.446 15.0984 0.152018 0.830075 -1.731873
2008-04-01 04:55:19 51°16.657 2°44.423 15.0993 0.151915 0.829501 -1.766697
2008-04-01 04:55:24 51°16.666 2°44.4 15.0999 0.151915 0.82953 -1.731873
2008-04-01 04:55:29 51°16.675 2°44.377 15.1004 0.151915 0.82953 -1.731873
2008-04-01 04:55:34 51°16.685 2°44.354 15.1011 0.151915 0.829544 -1.731873
2008-04-01 04:55:39 51°16.694 2°44.331 15.1022 0.151915 0.829544 -1.731873
2008-04-01 04:55:44 51°16.703 2°44.308 15.1028 0.151915 0.829558 -1.731873
2008-04-01 04:55:49 51°16.712 2°44.285 15.1036 0.151915 0.829587 -1.731873
2008-04-01 04:55:54 51°16.722 2°44.262 15.1039 0.151915 0.829601 -1.766697
2008-04-01 04:55:59 51°16.731 2°44.24 15.1043 0.151915 0.829616 -1.731873
2008-04-01 04:56:04 51°16.741 2°44.217 15.1053 0.151915 0.829644 -1.731873
2008-04-01 04:56:09 51°16.75 2°44.194 15.1058 0.151915 0.829644 -1.731873
2008-04-01 04:56:14 51°16.76 2°44.171 15.1067 0.151915 0.829659 -1.731873
2008-04-01 04:56:19 51°16.769 2°44.148 15.1075 0.151915 0.829673 -1.731873
2008-04-01 04:56:24 51°16.778 2°44.125 15.1079 0.151915 0.829687 -1.731873
2008-04-01 04:56:29 51°16.788 2°44.102 15.1083 0.151915 0.829716 -1.731873
2008-04-01 04:56:34 51°16.797 2°44.079 15.1093 0.151915 0.82973 -1.731873
2008-04-01 04:56:39 51°16.806 2°44.056 15.11 0.151915 0.82973 -1.731873
2008-04-01 04:56:44 51°16.816 2°44.034 15.1106 0.151915 0.829745 -1.731873
2008-04-01 04:56:49 51°16.825 2°44.011 15.1114 0.151915 0.829773 -1.731873
2008-04-01 04:56:54 51°16.835 2°43.988 15.1118 0.151915 0.829788 -1.731873
2008-04-01 04:56:59 51°16.844 2°43.965 15.1124 0.151915 0.829802 -1.731873
2008-04-01 04:57:04 51°16.854 2°43.942 15.1132 0.151915 0.829816 -1.731873
2008-04-01 04:57:09 51°16.864 2°43.92 15.1137 0.151915 0.829816 -1.731873
2008-04-01 04:57:14 51°16.873 2°43.897 15.1143 0.151915 0.829831 -1.731873
2008-04-01 04:57:19 51°16.883 2°43.874 15.1148 0.151915 0.829845 -1.731873
2008-04-01 04:57:24 51°16.893 2°43.852 15.1159 0.151915 0.829859 -1.731873
2008-04-01 04:57:29 51°16.903 2°43.829 15.1166 0.151915 0.829888 -1.697049
2008-04-01 04:57:34 51°16.912 2°43.806 15.117 0.151915 0.829888 -1.697049
2008-04-01 04:57:39 51°16.921 2°43.783 15.1176 0.151915 0.829917 -1.731873
2008-04-01 04:57:44 51°16.931 2°43.761 15.1181 0.151915 0.829931 -1.731873
2008-04-01 04:57:49 51°16.94 2°43.738 15.1187 0.151812 0.829357 -1.731873
2008-04-01 04:57:54 51°16.95 2°43.715 15.1195 0.151915 0.82996 -1.731873
2008-04-01 04:57:59 51°16.959 2°43.692 15.1202 0.151812 0.829385 -1.731873
2008-04-01 04:58:04 51°16.969 2°43.669 15.1208 0.151812 0.829385 -1.731873
2008-04-01 04:58:09 51°16.978 2°43.646 15.1213 0.151812 0.829414 -1.731873
2008-04-01 04:58:14 51°16.988 2°43.623 15.122 0.151812 0.829414 -1.731873
2008-04-01 04:58:19 51°16.997 2°43.6 15.1226 0.151812 0.829428 -1.731873
2008-04-01 04:58:24 51°17.007 2°43.577 15.1235 0.151812 0.829457 -1.731873
2008-04-01 04:58:29 51°17.016 2°43.554 15.124 0.151812 0.829486 -1.731873
2008-04-01 04:58:34 51°17.026 2°43.531 15.1248 0.151812 0.8295 -1.731873
2008-04-01 04:58:39 51°17.036 2°43.509 15.1251 0.151812 0.8295 -1.731873
2008-04-01 04:58:44 51°17.045 2°43.486 15.126 0.151812 0.829514 -1.731873
2008-04-01 04:58:49 51°17.055 2°43.463 15.1269 0.151812 0.829543 -1.731873
2008-04-01 04:58:54 51°17.064 2°43.44 15.1273 0.151812 0.829557 -1.731873
2008-04-01 04:58:59 51°17.074 2°43.417 15.1281 0.151812 0.829572 -1.731873
2008-04-01 04:59:04 51°17.083 2°43.394 15.1286 0.151812 0.8296 -1.731873
2008-04-01 04:59:09 51°17.093 2°43.371 15.1289 0.151812 0.8296 -1.731873
2008-04-01 04:59:14 51°17.102 2°43.349 15.1302 0.151812 0.8296 -1.731873
2008-04-01 04:59:19 51°17.112 2°43.326 15.1307 0.151812 0.829629 -1.731873
2008-04-01 04:59:24 51°17.121 2°43.303 15.1313 0.151812 0.829643 -1.731873
2008-04-01 04:59:29 51°17.131 2°43.28 15.132 0.151812 0.829658 -1.731873
2008-04-01 04:59:34 51°17.14 2°43.258 15.1324 0.151812 0.829686 -1.731873
2008-04-01 04:59:39 51°17.15 2°43.235 15.1332 0.151812 0.829686 -1.731873
2008-04-01 04:59:44 51°17.159 2°43.212 15.134 0.151812 0.829701 -1.731873
2008-04-01 04:59:49 51°17.169 2°43.189 15.1347 0.151812 0.829729 -1.731873
2008-04-01 04:59:54 51°17.179 2°43.167 15.135 0.151812 0.829758 -1.731873
2008-04-01 04:59:59 51°17.188 2°43.144 15.1357 0.151812 0.829758 -1.731873
2008-04-01 05:00:04 51°17.198 2°43.122 15.1365 0.151812 0.829758 -1.731873
2008-04-01 05:00:09 51°17.208 2°43.1 15.1371 0.151812 0.829787 -1.731873
2008-04-01 05:00:14 51°17.218 2°43.077 15.1382 0.151812 0.829801 -1.766697
2008-04-01 05:00:19 51°17.227 2°43.054 15.1382 0.151812 0.82983 -1.731873
2008-04-01 05:00:24 51°17.237 2°43.032 15.1394 0.151812 0.829844 -1.766697
2008-04-01 05:00:29 51°17.246 2°43.009 15.1396 0.151709 0.829269 -1.731873
2008-04-01 05:00:34 51°17.256 2°42.987 15.1403 0.151709 0.829298 -1.731873
2008-04-01 05:00:39 51°17.265 2°42.964 15.141 0.151709 0.829298 -1.731873
2008-04-01 05:00:44 51°17.276 2°42.942 15.1418 0.151709 0.829298 -1.731873
2008-04-01 05:00:49 51°17.286 2°42.92 15.1422 0.151709 0.829341 -1.731873
2008-04-01 05:00:54 51°17.296 2°42.899 15.143 0.151709 0.829327 -1.731873
2008-04-01 05:00:59 51°17.307 2°42.878 15.1436 0.151709 0.82937 -1.731873
2008-04-01 05:01:04 51°17.317 2°42.857 15.1443 0.151709 0.82937 -1.731873
2008-04-01 05:01:09 51°17.328 2°42.836 15.1446 0.151709 0.82937 -1.731873
2008-04-01 05:01:14 51°17.339 2°42.815 15.1458 0.151709 0.829399 -1.766697
2008-04-01 05:01:19 51°17.349 2°42.794 15.1467 0.151709 0.829442 -1.697049
2008-04-01 05:01:24 51°17.359 2°42.772 15.1469 0.151709 0.82947 -1.731873
2008-04-01 05:01:29 51°17.37 2°42.75 15.1478 0.151709 0.829499 -1.766697
2008-04-01 05:01:34 51°17.381 2°42.728 15.1486 0.151709 0.829513 -1.731873
2008-04-01 05:01:39 51°17.391 2°42.706 15.1492 0.151709 0.829513 -1.731873
2008-04-01 05:01:44 51°17.401 2°42.685 15.1497 0.151709 0.829513 -1.731873
2008-04-01 05:01:49 51°17.412 2°42.663 15.1508 0.151709 0.829528 -1.766697
2008-04-01 05:01:54 51°17.422 2°42.641 15.1513 0.151709 0.829542 -1.731873
2008-04-01 05:01:59 51°17.433 2°42.619 15.1518 0.151709 0.829571 -1.731873
2008-04-01 05:02:04 51°17.443 2°42.597 15.1528 0.151709 0.829599 -1.731873
2008-04-01 05:02:09 51°17.454 2°42.575 15.1536 0.151709 0.829599 -1.731873
2008-04-01 05:02:14 51°17.465 2°42.553 15.1542 0.151709 0.829614 -1.731873
2008-04-01 05:02:19 51°17.475 2°42.531 15.1546 0.151709 0.829628 -1.731873
2008-04-01 05:02:24 51°17.486 2°42.509 15.1554 0.151709 0.829657 -1.731873
2008-04-01 05:02:29 51°17.497 2°42.487 15.1563 0.151709 0.829686 -1.731873
2008-04-01 05:02:34 51°17.507 2°42.465 15.1572 0.151709 0.8297 -1.731873
2008-04-01 05:02:39 51°17.517 2°42.442 15.158 0.151709 0.8297 -1.731873
2008-04-01 05:02:44 51°17.527 2°42.42 15.1585 0.151709 0.829743 -1.731873
2008-04-01 05:02:49 51°17.538 2°42.398 15.1593 0.151709 0.829743 -1.731873
2008-04-01 05:02:54 51°17.547 2°42.375 15.1595 0.151709 0.829772 -1.731873
2008-04-01 05:02:59 51°17.557 2°42.352 15.1608 0.151606 0.829197 -1.731873
2008-04-01 05:03:04 51°17.567 2°42.33 15.1614 0.151606 0.829211 -1.731873
2008-04-01 05:03:09 51°17.577 2°42.307 15.1624 0.151606 0.829211 -1.731873
2008-04-01 05:03:14 51°17.587 2°42.284 15.1631 0.151606 0.829225 -1.731873
2008-04-01 05:03:19 51°17.598 2°42.262 15.1639 0.151606 0.82924 -1.731873
2008-04-01 05:03:24 51°17.608 2°42.24 15.1642 0.151606 0.829268 -1.731873
2008-04-01 05:03:29 51°17.618 2°42.217 15.1649 0.151606 0.829283 -1.731873
2008-04-01 05:03:34 51°17.628 2°42.194 15.1658 0.151606 0.829283 -1.731873
2008-04-01 05:03:39 51°17.638 2°42.172 15.1667 0.151606 0.829312 -1.731873
2008-04-01 05:03:44 51°17.648 2°42.149 15.1674 0.151606 0.82934 -1.731873
2008-04-01 05:03:49 51°17.658 2°42.126 15.1678 0.151606 0.829355 -1.731873
2008-04-01 05:03:54 51°17.668 2°42.104 15.1688 0.151606 0.829355 -1.731873
2008-04-01 05:03:59 51°17.678 2°42.081 15.1692 0.151606 0.829398 -1.731873
2008-04-01 05:04:04 51°17.688 2°42.059 15.17 0.151606 0.829412 -1.766697
2008-04-01 05:04:09 51°17.698 2°42.036 15.1709 0.151606 0.829412 -1.766697
2008-04-01 05:04:14 51°17.708 2°42.013 15.1714 0.151606 0.829426 -1.731873
2008-04-01 05:04:19 51°17.718 2°41.991 15.1721 0.151606 0.829455 -1.731873
2008-04-01 05:04:24 51°17.728 2°41.968 15.1734 0.151606 0.829484 -1.731873
2008-04-01 05:04:29 51°17.738 2°41.945 15.1738 0.151606 0.829498 -1.731873
2008-04-01 05:04:34 51°17.748 2°41.923 15.1743 0.151606 0.829513 -1.731873
2008-04-01 05:04:39 51°17.758 2°41.9 15.1749 0.151606 0.829513 -1.731873
2008-04-01 05:04:44 51°17.768 2°41.878 15.1759 0.151606 0.829541 -1.731873
2008-04-01 05:04:49 51°17.778 2°41.855 15.1765 0.151606 0.829556 -1.731873
2008-04-01 05:04:54 51°17.788 2°41.832 15.1775 0.151606 0.829584 -1.731873
2008-04-01 05:04:59 51°17.798 2°41.81 15.1783 0.151606 0.829599 -1.731873
2008-04-01 05:05:04 51°17.808 2°41.787 15.1792 0.151606 0.829599 -1.731873
2008-04-01 05:05:09 51°17.818 2°41.764 15.1796 0.151606 0.829627 -1.731873
2008-04-01 05:05:14 51°17.828 2°41.741 15.1808 0.151606 0.829642 -1.731873
2008-04-01 05:05:19 51°17.838 2°41.719 15.1812 0.151606 0.829656 -1.731873
2008-04-01 05:05:24 51°17.848 2°41.696 15.182 0.151503 0.829081 -1.766697
2008-04-01 05:05:29 51°17.858 2°41.673 15.1828 0.151503 0.82911 -1.731873
2008-04-01 05:05:34 51°17.868 2°41.651 15.1838 0.151503 0.829138 -1.731873
2008-04-01 05:05:39 51°17.877 2°41.628 15.1841 0.151503 0.829138 -1.731873
2008-04-01 05:05:44 51°17.887 2°41.605 15.1851 0.151503 0.829153 -1.731873
2008-04-01 05:05:49 51°17.897 2°41.582 15.1854 0.151503 0.829181 -1.731873
2008-04-01 05:05:54 51°17.908 2°41.559 15.1866 0.151503 0.829196 -1.731873
2008-04-01 05:05:59 51°17.917 2°41.536 15.1868 0.151503 0.82921 -1.731873
2008-04-01 05:06:04 51°17.928 2°41.514 15.1878 0.151503 0.829225 -1.731873
2008-04-01 05:06:09 51°17.938 2°41.492 15.1885 0.151503 0.829225 -1.731873
2008-04-01 05:06:14 51°17.948 2°41.469 15.189 0.151503 0.829268 -1.731873
2008-04-01 05:06:19 51°17.958 2°41.446 15.1897 0.151503 0.829282 -1.731873
2008-04-01 05:06:24 51°17.968 2°41.424 15.1903 0.151503 0.829296 -1.766697
2008-04-01 05:06:29 51°17.978 2°41.401 15.1912 0.151503 0.829311 -1.731873
2008-04-01 05:06:34 51°17.988 2°41.379 15.1919 0.151503 0.829311 -1.731873
2008-04-01 05:06:39 51°17.999 2°41.356 15.1931 0.151503 0.829325 -1.731873
2008-04-01 05:06:44 51°18.009 2°41.334 15.1934 0.151503 0.829354 -1.731873
2008-04-01 05:06:49 51°18.019 2°41.311 15.1944 0.151503 0.829383 -1.731873
2008-04-01 05:06:54 51°18.029 2°41.289 15.1949 0.151503 0.829397 -1.731873
2008-04-01 05:06:59 51°18.039 2°41.266 15.196 0.151503 0.829411 -1.731873
2008-04-01 05:07:04 51°18.049 2°41.244 15.1968 0.151503 0.829426 -1.731873
2008-04-01 05:07:09 51°18.059 2°41.221 15.1974 0.151503 0.829426 -1.731873
2008-04-01 05:07:14 51°18.069 2°41.198 15.198 0.151503 0.829454 -1.731873
2008-04-01 05:07:19 51°18.079 2°41.176 15.1989 0.151503 0.829483 -1.731873
2008-04-01 05:07:24 51°18.089 2°41.153 15.1997 0.151503 0.829498 -1.731873
2008-04-01 05:07:29 51°18.099 2°41.131 15.2007 0.151503 0.829512 -1.731873
2008-04-01 05:07:34 51°18.109 2°41.108 15.2014 0.151503 0.829541 -1.731873
2008-04-01 05:07:39 51°18.119 2°41.086 15.2021 0.151503 0.829541 -1.731873
2008-04-01 05:07:44 51°18.128 2°41.063 15.2027 0.151503 0.829555 -1.731873
2008-04-01 05:07:49 51°18.138 2°41.041 15.2037 0.1514 0.828979 -1.766697
2008-04-01 05:07:54 51°18.149 2°41.019 15.2042 0.1514 0.828994 -1.731873
2008-04-01 05:07:59 51°18.159 2°40.996 15.2052 0.1514 0.829023 -1.731873
2008-04-01 05:08:04 51°18.169 2°40.974 15.2055 0.1514 0.829037 -1.731873
2008-04-01 05:08:09 51°18.179 2°40.952 15.207 0.1514 0.829037 -1.731873
2008-04-01 05:08:14 51°18.189 2°40.929 15.2072 0.1514 0.82908 -1.731873
2008-04-01 05:08:19 51°18.199 2°40.907 15.2083 0.1514 0.82908 -1.731873
2008-04-01 05:08:24 51°18.21 2°40.885 15.209 0.1514 0.829109 -1.697049
2008-04-01 05:08:29 51°18.22 2°40.863 15.2101 0.1514 0.829123 -1.731873
2008-04-01 05:08:34 51°18.23 2°40.841 15.2104 0.1514 0.829123 -1.731873
2008-04-01 05:08:39 51°18.24 2°40.819 15.2112 0.1514 0.829137 -1.731873
2008-04-01 05:08:44 51°18.25 2°40.796 15.2118 0.1514 0.829166 -1.731873
2008-04-01 05:08:49 51°18.26 2°40.774 15.2131 0.1514 0.829181 -1.731873
2008-04-01 05:08:54 51°18.27 2°40.752 15.2135 0.1514 0.829195 -1.731873
2008-04-01 05:08:59 51°18.281 2°40.729 15.2144 0.1514 0.829224 -1.731873
2008-04-01 05:09:04 51°18.291 2°40.707 15.2151 0.1514 0.829252 -1.731873
2008-04-01 05:09:09 51°18.301 2°40.684 15.2155 0.1514 0.829252 -1.731873
2008-04-01 05:09:14 51°18.311 2°40.662 15.2166 0.1514 0.829252 -1.731873
2008-04-01 05:09:19 51°18.321 2°40.639 15.2173 0.1514 0.829281 -1.731873
2008-04-01 05:09:24 51°18.331 2°40.617 15.2183 0.1514 0.829296 -1.731873
2008-04-01 05:09:29 51°18.341 2°40.595 15.2188 0.1514 0.829324 -1.731873
2008-04-01 05:09:34 51°18.351 2°40.572 15.22 0.1514 0.829353 -1.766697
2008-04-01 05:09:39 51°18.361 2°40.55 15.2206 0.1514 0.829353 -1.766697
2008-04-01 05:09:44 51°18.371 2°40.527 15.2209 0.1514 0.829368 -1.731873
2008-04-01 05:09:49 51°18.381 2°40.505 15.222 0.1514 0.829382 -1.731873
2008-04-01 05:09:54 51°18.391 2°40.482 15.2223 0.1514 0.829411 -1.731873
2008-04-01 05:09:59 51°18.402 2°40.46 15.2233 0.1514 0.829411 -1.766697
2008-04-01 05:10:04 51°18.412 2°40.438 15.2241 0.1514 0.829439 -1.766697
2008-04-01 05:10:09 51°18.422 2°40.416 15.225 0.1514 0.829439 -1.766697
2008-04-01 05:10:14 51°18.432 2°40.394 15.2257 0.151297 0.828878 -1.731873
2008-04-01 05:10:19 51°18.442 2°40.371 15.2262 0.151297 0.828892 -1.731873
2008-04-01 05:10:24 51°18.452 2°40.349 15.2271 0.151297 0.828907 -1.731873
2008-04-01 05:10:29 51°18.462 2°40.327 15.2277 0.151297 0.82895 -1.697049
2008-04-01 05:10:34 51°18.472 2°40.305 15.2285 0.151297 0.82895 -1.697049
2008-04-01 05:10:39 51°18.482 2°40.283 15.2293 0.151297 0.82895 -1.731873
2008-04-01 05:10:44 51°18.493 2°40.261 15.2299 0.151297 0.828979 -1.731873
2008-04-01 05:10:49 51°18.503 2°40.238 15.2307 0.151297 0.829007 -1.731873
2008-04-01 05:10:54 51°18.513 2°40.215 15.2314 0.151297 0.829022 -1.766697
2008-04-01 05:10:59 51°18.523 2°40.193 15.2322 0.151297 0.829036 -1.731873
2008-04-01 05:11:04 51°18.533 2°40.17 15.2329 0.151297 0.82905 -1.731873
2008-04-01 05:11:09 51°18.543 2°40.147 15.2335 0.151297 0.82905 -1.731873
2008-04-01 05:11:14 51°18.553 2°40.125 15.2345 0.151297 0.829065 -1.731873
2008-04-01 05:11:19 51°18.564 2°40.103 15.2357 0.151297 0.829094 -1.731873
2008-04-01 05:11:24 51°18.574 2°40.08 15.236 0.151297 0.829108 -1.731873
2008-04-01 05:11:29 51°18.584 2°40.058 15.2368 0.151297 0.829151 -1.731873
2008-04-01 05:11:34 51°18.594 2°40.035 15.2374 0.151297 0.829151 -1.731873
2008-04-01 05:11:39 51°18.604 2°40.013 15.2383 0.151297 0.829151 -1.731873
2008-04-01 05:11:44 51°18.615 2°39.991 15.239 0.151297 0.82918 -1.731873
2008-04-01 05:11:49 51°18.625 2°39.968 15.2397 0.151297 0.829194 -1.766697
2008-04-01 05:11:54 51°18.635 2°39.946 15.2402 0.151297 0.829223 -1.731873
2008-04-01 05:11:59 51°18.646 2°39.923 15.2408 0.151297 0.829238 -1.731873
2008-04-01 05:12:04 51°18.656 2°39.902 15.2419 0.151297 0.829266 -1.731873
2008-04-01 05:12:09 51°18.666 2°39.879 15.2424 0.151297 0.829266 -1.731873
2008-04-01 05:12:14 51°18.677 2°39.857 15.2432 0.151297 0.829295 -1.731873
2008-04-01 05:12:19 51°18.687 2°39.834 15.244 0.151297 0.829309 -1.731873
2008-04-01 05:12:24 51°18.697 2°39.812 15.2445 0.151195 0.828733 -1.731873
2008-04-01 05:12:29 51°18.707 2°39.789 15.2453 0.151195 0.828762 -1.731873
2008-04-01 05:12:34 51°18.717 2°39.767 15.2462 0.151195 0.828776 -1.766697
2008-04-01 05:12:39 51°18.727 2°39.745 15.2466 0.151195 0.828776 -1.766697
2008-04-01 05:12:44 51°18.738 2°39.723 15.2477 0.151195 0.828791 -1.731873
2008-04-01 05:12:49 51°18.748 2°39.7 15.2484 0.151195 0.82882 -1.731873
2008-04-01 05:12:54 51°18.758 2°39.678 15.2491 0.151195 0.828834 -1.731873
2008-04-01 05:12:59 51°18.768 2°39.655 15.25 0.151195 0.828863 -1.731873
2008-04-01 05:13:04 51°18.778 2°39.633 15.2505 0.151195 0.828877 -1.731873
2008-04-01 05:13:09 51°18.788 2°39.611 15.2513 0.151195 0.828877 -1.731873
2008-04-01 05:13:14 51°18.798 2°39.588 15.252 0.151195 0.828906 -1.731873
2008-04-01 05:13:19 51°18.808 2°39.566 15.253 0.151195 0.82892 -1.731873
2008-04-01 05:13:24 51°18.818 2°39.543 15.2533 0.151195 0.828949 -1.731873
2008-04-01 05:13:29 51°18.828 2°39.521 15.2544 0.151195 0.828963 -1.766697
2008-04-01 05:13:34 51°18.839 2°39.498 15.2548 0.151195 0.828992 -1.731873
2008-04-01 05:13:39 51°18.848 2°39.476 15.2557 0.151195 0.828992 -1.731873
2008-04-01 05:13:44 51°18.858 2°39.454 15.2564 0.151195 0.829007 -1.731873
2008-04-01 05:13:49 51°18.869 2°39.432 15.257 0.151195 0.829021 -1.731873
2008-04-01 05:13:54 51°18.879 2°39.41 15.2578 0.151195 0.82905 -1.731873
2008-04-01 05:13:59 51°18.889 2°39.387 15.2586 0.151195 0.829064 -1.731873
2008-04-01 05:14:04 51°18.899 2°39.365 15.2592 0.151195 0.829064 -1.731873
2008-04-01 05:14:09 51°18.909 2°39.343 15.2601 0.151195 0.829093 -1.731873
2008-04-01 05:14:14 51°18.918 2°39.32 15.2609 0.151195 0.829122 -1.697049
2008-04-01 05:14:19 51°18.929 2°39.298 15.2617 0.151195 0.829136 -1.731873
2008-04-01 05:14:24 51°18.939 2°39.276 15.2621 0.151195 0.829165 -1.731873
2008-04-01 05:14:29 51°18.948 2°39.253 15.2629 0.151195 0.829179 -1.731873
2008-04-01 05:14:34 51°18.958 2°39.231 15.264 0.151195 0.829208 -1.731873
2008-04-01 05:14:39 51°18.968 2°39.208 15.2641 0.151195 0.829208 -1.731873
2008-04-01 05:14:44 51°18.978 2°39.186 15.2651 0.151195 0.829223 -1.731873
2008-04-01 05:14:49 51°18.989 2°39.164 15.2662 0.151195 0.829237 -1.731873
2008-04-01 05:14:54 51°18.999 2°39.141 15.2671 0.151092 0.828675 -1.731873
2008-04-01 05:14:59 51°19.009 2°39.119 15.2674 0.151092 0.828689 -1.731873
2008-04-01 05:15:04 51°19.019 2°39.097 15.2682 0.151092 0.828718 -1.731873
2008-04-01 05:15:09 51°19.029 2°39.074 15.2689 0.151092 0.828718 -1.731873
2008-04-01 05:15:14 51°19.039 2°39.052 15.2701 0.151092 0.828732 -1.731873
2008-04-01 05:15:19 51°19.049 2°39.03 15.2708 0.151092 0.828761 -1.731873
2008-04-01 05:15:24 51°19.059 2°39.008 15.2717 0.151092 0.82879 -1.731873
2008-04-01 05:15:29 51°19.069 2°38.985 15.2722 0.151092 0.828819 -1.731873
2008-04-01 05:15:34 51°19.079 2°38.962 15.2732 0.151092 0.828819 -1.731873
2008-04-01 05:15:39 51°19.089 2°38.94 15.2737 0.151092 0.828819 -1.731873
2008-04-01 05:15:44 51°19.099 2°38.918 15.2745 0.151092 0.828848 -1.731873
2008-04-01 05:15:49 51°19.109 2°38.895 15.275 0.151092 0.828876 -1.731873
2008-04-01 05:15:54 51°19.119 2°38.873 15.2764 0.151092 0.828891 -1.731873
2008-04-01 05:15:59 51°19.128 2°38.85 15.277 0.151092 0.82892 -1.731873
2008-04-01 05:16:04 51°19.139 2°38.828 15.2778 0.151092 0.828934 -1.731873
2008-04-01 05:16:09 51°19.149 2°38.806 15.2786 0.151092 0.828934 -1.731873
2008-04-01 05:16:14 51°19.159 2°38.783 15.2793 0.151092 0.828963 -1.731873
2008-04-01 05:16:19 51°19.169 2°38.761 15.2802 0.151092 0.828992 -1.731873
2008-04-01 05:16:24 51°19.179 2°38.738 15.2813 0.151092 0.829021 -1.731873
2008-04-01 05:16:29 51°19.189 2°38.716 15.282 0.151092 0.829035 -1.731873
2008-04-01 05:16:34 51°19.199 2°38.694 15.2827 0.151092 0.829049 -1.766697
2008-04-01 05:16:39 51°19.209 2°38.671 15.2836 0.151092 0.829049 -1.766697
2008-04-01 05:16:44 51°19.219 2°38.649 15.2841 0.151092 0.829078 -1.731873
2008-04-01 05:16:49 51°19.229 2°38.627 15.285 0.151092 0.829093 -1.731873
2008-04-01 05:16:54 51°19.239 2°38.604 15.286 0.151092 0.829121 -1.731873
2008-04-01 05:16:59 51°19.249 2°38.582 15.2867 0.151092 0.829136 -1.731873
2008-04-01 05:17:04 51°19.26 2°38.559 15.2881 0.150989 0.828573 -1.731873
2008-04-01 05:17:09 51°19.27 2°38.537 15.2885 0.150989 0.828573 -1.731873
2008-04-01 05:17:14 51°19.28 2°38.515 15.2894 0.150989 0.828588 -1.731873
2008-04-01 05:17:19 51°19.29 2°38.493 15.2899 0.150989 0.828631 -1.731873
2008-04-01 05:17:24 51°19.3 2°38.471 15.2907 0.150989 0.828645 -1.731873
2008-04-01 05:17:29 51°19.31 2°38.448 15.2918 0.150989 0.828674 -1.731873
2008-04-01 05:17:34 51°19.32 2°38.426 15.2923 0.150989 0.828674 -1.731873
2008-04-01 05:17:39 51°19.331 2°38.403 15.2935 0.150989 0.828689 -1.731873
2008-04-01 05:17:44 51°19.341 2°38.381 15.2939 0.150989 0.828717 -1.731873
2008-04-01 05:17:49 51°19.35 2°38.358 15.2953 0.150989 0.828746 -1.766697
2008-04-01 05:17:54 51°19.36 2°38.336 15.2953 0.150989 0.828761 -1.731873
2008-04-01 05:17:59 51°19.37 2°38.314 15.2963 0.150989 0.828775 -1.731873
2008-04-01 05:18:04 51°19.38 2°38.292 15.2975 0.150989 0.828804 -1.731873
2008-04-01 05:18:09 51°19.39 2°38.269 15.298 0.150989 0.828804 -1.731873
2008-04-01 05:18:14 51°19.401 2°38.247 15.2991 0.150989 0.828833 -1.766697
2008-04-01 05:18:19 51°19.41 2°38.224 15.2994 0.150989 0.828847 -1.731873
2008-04-01 05:18:24 51°19.421 2°38.202 15.3002 0.150989 0.828876 -1.731873
2008-04-01 05:18:29 51°19.431 2°38.18 15.301 0.150989 0.828905 -1.731873
2008-04-01 05:18:34 51°19.441 2°38.158 15.3019 0.150989 0.828934 -1.731873
2008-04-01 05:18:39 51°19.451 2°38.136 15.3023 0.150989 0.828934 -1.731873
2008-04-01 05:18:44 51°19.461 2°38.114 15.3038 0.150989 0.828948 -1.766697
2008-04-01 05:18:49 51°19.471 2°38.091 15.3041 0.150989 0.828991 -1.697049
2008-04-01 05:18:54 51°19.482 2°38.07 15.3056 0.150989 0.829006 -1.731873
2008-04-01 05:18:59 51°19.492 2°38.047 15.3059 0.150989 0.829035 -1.731873
2008-04-01 05:19:04 51°19.502 2°38.025 15.3068 0.150989 0.829049 -1.731873
2008-04-01 05:19:08 51°19.51 2°38.007 15.3077 0.150989 0.829049 -1.731873
2008-04-01 05:19:13 51°19.52 2°37.985 15.3082 0.150989 0.829063 -1.731873
2008-04-01 05:19:18 51°19.53 2°37.963 15.3091 0.150886 0.828501 -1.766697
2008-04-01 05:19:23 51°19.54 2°37.941 15.3097 0.150886 0.828515 -1.731873
2008-04-01 05:19:28 51°19.551 2°37.919 15.3107 0.150886 0.828544 -1.731873
2008-04-01 05:19:33 51°19.561 2°37.896 15.3116 0.150886 0.828544 -1.731873
2008-04-01 05:19:37 51°19.569 2°37.879 15.3123 0.150886 0.828573 -1.731873
2008-04-01 05:19:42 51°19.579 2°37.857 15.3131 0.150886 0.828601 -1.731873
2008-04-01 05:19:47 51°19.59 2°37.835 15.314 0.150886 0.82863 -1.731873
2008-04-01 05:19:52 51°19.6 2°37.812 15.3147 0.150886 0.828659 -1.731873
2008-04-01 05:19:57 51°19.61 2°37.79 15.3153 0.150886 0.828674 -1.766697
2008-04-01 05:20:02 51°19.62 2°37.768 15.3167 0.150886 0.828702 -1.731873
2008-04-01 05:20:07 51°19.63 2°37.746 15.3171 0.150886 0.828702 -1.731873
2008-04-01 05:20:12 51°19.64 2°37.724 15.3183 0.150886 0.828717 -1.731873
2008-04-01 05:20:16 51°19.648 2°37.706 15.3184 0.150886 0.828746 -1.731873
2008-04-01 05:20:21 51°19.658 2°37.684 15.3197 0.150886 0.82876 -1.731873
2008-04-01 05:20:26 51°19.668 2°37.662 15.3203 0.150886 0.828789 -1.731873
2008-04-01 05:20:31 51°19.678 2°37.639 15.3213 0.150886 0.828818 -1.731873
2008-04-01 05:20:36 51°19.689 2°37.617 15.3219 0.150886 0.828818 -1.731873
2008-04-01 05:20:40 51°19.697 2°37.6 15.3229 0.150886 0.828832 -1.731873
2008-04-01 05:20:45 51°19.707 2°37.578 15.3234 0.150886 0.828876 -1.697049
2008-04-01 05:20:51 51°19.719 2°37.551 15.3247 0.150886 0.82889 -1.731873
2008-04-01 05:20:56 51°19.729 2°37.529 15.3251 0.150886 0.828904 -1.731873
2008-04-01 05:21:00 51°19.737 2°37.511 15.326 0.150886 0.828904 -1.731873
2008-04-01 05:21:06 51°19.75 2°37.485 15.3266 0.150886 0.828948 -1.731873
2008-04-01 05:21:11 51°19.76 2°37.463 15.3274 0.150886 0.828962 -1.731873
2008-04-01 05:21:16 51°19.77 2°37.441 15.3284 0.150886 0.828977 -1.731873
2008-04-01 05:21:20 51°19.778 2°37.423 15.3293 0.150783 0.828428 -1.731873
2008-04-01 05:21:25 51°19.788 2°37.401 15.3305 0.150783 0.828428 -1.731873
2008-04-01 05:21:31 51°19.801 2°37.375 15.3308 0.150783 0.828457 -1.731873
2008-04-01 05:21:36 51°19.811 2°37.353 15.332 0.150783 0.828457 -1.731873
2008-04-01 05:21:40 51°19.819 2°37.335 15.3325 0.150783 0.828486 -1.731873
2008-04-01 05:21:45 51°19.829 2°37.313 15.3335 0.150783 0.8285 -1.731873
2008-04-01 05:21:50 51°19.839 2°37.292 15.3341 0.150783 0.828543 -1.697049
2008-04-01 05:21:56 51°19.851 2°37.266 15.3353 0.150783 0.828558 -1.766697
2008-04-01 05:22:01 51°19.861 2°37.244 15.3362 0.150783 0.828601 -1.697049
2008-04-01 05:22:05 51°19.869 2°37.227 15.3366 0.150783 0.828601 -1.697049
2008-04-01 05:22:11 51°19.88 2°37.201 15.3374 0.150783 0.828601 -1.731873
2008-04-01 05:22:16 51°19.89 2°37.18 15.3382 0.150783 0.82863 -1.731873
2008-04-01 05:22:21 51°19.899 2°37.159 15.3395 0.150783 0.828644 -1.731873
2008-04-01 05:22:25 51°19.907 2°37.142 15.3395 0.150783 0.828688 -1.697049
2008-04-01 05:22:30 51°19.917 2°37.121 15.3412 0.150783 0.828702 -1.766697
2008-04-01 05:22:36 51°19.929 2°37.096 15.3411 0.150783 0.828702 -1.766697
2008-04-01 05:22:40 51°19.936 2°37.079 15.3429 0.150783 0.828716 -1.731873
2008-04-01 05:22:45 51°19.947 2°37.06 15.3431 0.150783 0.828745 -1.731873
2008-04-01 05:22:51 51°19.958 2°37.038 15.3438 0.150783 0.82876 -1.766697
2008-04-01 05:22:56 51°19.967 2°37.023 15.3444 0.150783 0.828803 -1.731873
2008-04-01 05:23:00 51°19.973 2°37.012 15.3451 0.150783 0.828803 -1.731873
2008-04-01 05:23:05 51°19.981 2°37 15.3457 0.150783 0.828832 -1.766697
2008-04-01 05:23:11 51°19.989 2°36.987 15.3468 0.150783 0.828861 -1.766697
2008-04-01 05:23:16 51°19.995 2°36.978 15.3475 0.150783 0.82889 -1.731873